Wetterdaten: Mittwoch, 26.10.2022
Datum Zeit Temp. 2m Temp +5 cm Feuchte A. Luftdruck Regen Wind Richtung Richtung Sonnenschein UV Solar Taupunkt Windchill Windben
26.10.2022 00:00 7,3 C 6,7 C 93 % 1017,0 hPa 0,0 l/m 1,0 km/h (0 Bft) O-NO 69 0 min 0,0 UV-I 0 W/m 6,2 C 7,3 C 3,2 km/h (1 Bft)
26.10.2022 00:03 7,5 C 6,7 C 93 % 1017,0 hPa 0,0 l/m 1,6 km/h (1 Bft) O-NO 69 0 min 0,0 UV-I 0 W/m 6,4 C 7,5 C 3,2 km/h (1 Bft)
26.10.2022 00:06 7,7 C 6,7 C 93 % 1017,0 hPa 0,0 l/m 1,9 km/h (1 Bft) O-NO 69 0 min 0,0 UV-I 0 W/m 6,6 C 7,7 C 3,2 km/h (1 Bft)
26.10.2022 00:09 7,8 C 7,2 C 93 % 1016,9 hPa 0,0 l/m 3,3 km/h (1 Bft) NO 35 0 min 0,0 UV-I 0 W/m 6,7 C 7,8 C 6,4 km/h (2 Bft)
26.10.2022 00:12 8,1 C 7,2 C 93 % 1016,9 hPa 0,0 l/m 4,0 km/h (1 Bft) N-NO 32 0 min 0,0 UV-I 0 W/m 7,0 C 8,1 C 6,4 km/h (2 Bft)
26.10.2022 00:15 7,8 C 7,2 C 93 % 1017,0 hPa 0,0 l/m 2,3 km/h (1 Bft) N-NO 31 0 min 0,0 UV-I 0 W/m 6,7 C 7,8 C 4,8 km/h (1 Bft)
26.10.2022 00:18 7,6 C 7,2 C 92 % 1016,9 hPa 0,0 l/m 1,1 km/h (1 Bft) N-NO 30 0 min 0,0 UV-I 0 W/m 6,4 C 7,6 C 4,8 km/h (1 Bft)
26.10.2022 00:21 7,6 C 7,2 C 93 % 1017,0 hPa 0,0 l/m 2,7 km/h (1 Bft) N-NO 30 0 min 0,0 UV-I 0 W/m 6,5 C 7,6 C 4,8 km/h (1 Bft)
26.10.2022 00:24 7,9 C 7,2 C 93 % 1016,9 hPa 0,0 l/m 5,7 km/h (1 Bft) N 5 0 min 0,0 UV-I 0 W/m 6,8 C 7,9 C 8,0 km/h (2 Bft)
26.10.2022 00:27 8,3 C 7,2 C 93 % 1017,0 hPa 0,0 l/m 5,1 km/h (1 Bft) N 360 0 min 0,0 UV-I 0 W/m 7,2 C 8,3 C 6,4 km/h (2 Bft)
26.10.2022 00:30 8,2 C 7,8 C 93 % 1017,0 hPa 0,0 l/m 4,2 km/h (1 Bft) N 9 0 min 0,0 UV-I 0 W/m 7,1 C 8,2 C 6,4 km/h (2 Bft)
26.10.2022 00:33 7,9 C 7,2 C 93 % 1016,9 hPa 0,0 l/m 3,5 km/h (1 Bft) N 9 0 min 0,0 UV-I 0 W/m 6,8 C 7,9 C 6,4 km/h (2 Bft)
26.10.2022 00:36 7,9 C 7,8 C 93 % 1016,9 hPa 0,0 l/m 3,9 km/h (1 Bft) N 360 0 min 0,0 UV-I 0 W/m 6,8 C 7,9 C 6,4 km/h (2 Bft)
26.10.2022 00:39 8,2 C 7,2 C 93 % 1016,9 hPa 0,0 l/m 4,3 km/h (1 Bft) N 360 0 min 0,0 UV-I 0 W/m 7,1 C 8,2 C 6,4 km/h (2 Bft)
26.10.2022 00:42 8,4 C 7,8 C 94 % 1016,9 hPa 0,0 l/m 5,9 km/h (2 Bft) N 355 0 min 0,0 UV-I 0 W/m 7,5 C 8,4 C 8,0 km/h (2 Bft)
26.10.2022 00:45 8,4 C 7,8 C 93 % 1016,9 hPa 0,0 l/m 3,9 km/h (1 Bft) N 355 0 min 0,0 UV-I 0 W/m 7,3 C 8,4 C 6,4 km/h (2 Bft)
26.10.2022 00:48 8,5 C 7,8 C 93 % 1016,9 hPa 0,0 l/m 4,9 km/h (1 Bft) N 355 0 min 0,0 UV-I 0 W/m 7,4 C 8,5 C 8,0 km/h (2 Bft)
26.10.2022 00:51 8,2 C 7,8 C 93 % 1016,9 hPa 0,0 l/m 2,7 km/h (1 Bft) N 355 0 min 0,0 UV-I 0 W/m 7,1 C 8,2 C 6,4 km/h (2 Bft)
26.10.2022 00:54 8,3 C 7,8 C 93 % 1016,9 hPa 0,0 l/m 2,6 km/h (1 Bft) N 355 0 min 0,0 UV-I 0 W/m 7,2 C 8,3 C 6,4 km/h (2 Bft)
26.10.2022 00:57 8,3 C 7,8 C 93 % 1016,9 hPa 0,0 l/m 2,9 km/h (1 Bft) N 355 0 min 0,0 UV-I 0 W/m 7,2 C 8,3 C 4,8 km/h (1 Bft)
26.10.2022 01:00 8,4 C 7,8 C 93 % 1016,8 hPa 0,0 l/m 3,2 km/h (1 Bft) N 350 0 min 0,0 UV-I 0 W/m 7,3 C 8,4 C 4,8 km/h (1 Bft)
26.10.2022 01:03 8,6 C 7,8 C 93 % 1016,9 hPa 0,0 l/m 3,0 km/h (1 Bft) N 355 0 min 0,0 UV-I 0 W/m 7,5 C 8,6 C 4,8 km/h (1 Bft)
26.10.2022 01:06 8,3 C 8,3 C 93 % 1016,9 hPa 0,0 l/m 3,3 km/h (1 Bft) N 355 0 min 0,0 UV-I 0 W/m 7,2 C 8,3 C 4,8 km/h (1 Bft)
26.10.2022 01:09 8,2 C 7,8 C 93 % 1016,9 hPa 0,0 l/m 1,9 km/h (1 Bft) N 355 0 min 0,0 UV-I 0 W/m 7,1 C 8,2 C 3,2 km/h (1 Bft)
26.10.2022 01:12 8,1 C 7,8 C 93 % 1016,9 hPa 0,0 l/m 1,7 km/h (1 Bft) N 355 0 min 0,0 UV-I 0 W/m 7,0 C 8,1 C 3,2 km/h (1 Bft)
26.10.2022 01:15 8,4 C 7,8 C 93 % 1016,9 hPa 0,0 l/m 2,3 km/h (1 Bft) N 355 0 min 0,0 UV-I 0 W/m 7,3 C 8,4 C 4,8 km/h (1 Bft)
26.10.2022 01:18 8,4 C 7,8 C 94 % 1016,9 hPa 0,0 l/m 2,7 km/h (1 Bft) N 355 0 min 0,0 UV-I 0 W/m 7,5 C 8,4 C 6,4 km/h (2 Bft)
26.10.2022 01:21 8,3 C 7,8 C 93 % 1016,8 hPa 0,0 l/m 2,3 km/h (1 Bft) N 355 0 min 0,0 UV-I 0 W/m 7,2 C 8,3 C 4,8 km/h (1 Bft)
26.10.2022 01:24 8,3 C 7,8 C 93 % 1016,8 hPa 0,0 l/m 0,8 km/h (0 Bft) N 355 0 min 0,0 UV-I 0 W/m 7,2 C 8,3 C 3,2 km/h (1 Bft)
26.10.2022 01:27 8,2 C 7,8 C 93 % 1016,9 hPa 0,0 l/m 1,9 km/h (1 Bft) N 355 0 min 0,0 UV-I 0 W/m 7,1 C 8,2 C 3,2 km/h (1 Bft)
26.10.2022 01:30 8,1 C 7,8 C 93 % 1016,8 hPa 0,0 l/m 2,3 km/h (1 Bft) N 355 0 min 0,0 UV-I 0 W/m 7,0 C 8,1 C 3,2 km/h (1 Bft)
26.10.2022 01:33 8,0 C 7,8 C 93 % 1016,7 hPa 0,0 l/m 3,3 km/h (1 Bft) N 355 0 min 0,0 UV-I 0 W/m 6,9 C 8,0 C 4,8 km/h (1 Bft)
26.10.2022 01:36 8,1 C 7,8 C 93 % 1016,8 hPa 0,0 l/m 0,8 km/h (0 Bft) N 355 0 min 0,0 UV-I 0 W/m 7,0 C 8,1 C 3,2 km/h (1 Bft)
26.10.2022 01:39 8,2 C 7,8 C 93 % 1016,8 hPa 0,0 l/m 2,9 km/h (1 Bft) N 355 0 min 0,0 UV-I 0 W/m 7,1 C 8,2 C 6,4 km/h (2 Bft)
26.10.2022 01:42 8,1 C 7,8 C 93 % 1016,8 hPa 0,0 l/m 1,5 km/h (1 Bft) N 355 0 min 0,0 UV-I 0 W/m 7,0 C 8,1 C 4,8 km/h (1 Bft)
26.10.2022 01:45 8,3 C 7,8 C 94 % 1016,8 hPa 0,0 l/m 1,4 km/h (1 Bft) N 355 0 min 0,0 UV-I 0 W/m 7,4 C 8,3 C 3,2 km/h (1 Bft)
26.10.2022 01:48 8,6 C 7,8 C 94 % 1016,8 hPa 0,0 l/m 1,9 km/h (1 Bft) N 355 0 min 0,0 UV-I 0 W/m 7,7 C 8,6 C 3,2 km/h (1 Bft)
26.10.2022 01:51 8,3 C 7,8 C 93 % 1016,9 hPa 0,0 l/m 0,0 km/h (0 Bft) N 355 0 min 0,0 UV-I 0 W/m 7,2 C 8,3 C 0,0 km/h (0 Bft)
26.10.2022 01:54 8,1 C 7,8 C 93 % 1016,8 hPa 0,0 l/m 1,1 km/h (1 Bft) N 355 0 min 0,0 UV-I 0 W/m 7,0 C 8,1 C 3,2 km/h (1 Bft)
26.10.2022 01:57 8,2 C 7,8 C 93 % 1016,8 hPa 0,0 l/m 0,0 km/h (0 Bft) N 355 0 min 0,0 UV-I 0 W/m 7,1 C 8,2 C 1,6 km/h (1 Bft)
26.10.2022 02:00 8,1 C 7,8 C 93 % 1016,7 hPa 0,0 l/m 1,7 km/h (1 Bft) N 355 0 min 0,0 UV-I 0 W/m 7,0 C 8,1 C 3,2 km/h (1 Bft)
26.10.2022 02:03 8,1 C 7,8 C 93 % 1016,8 hPa 0,0 l/m 2,0 km/h (1 Bft) N 355 0 min 0,0 UV-I 0 W/m 7,0 C 8,1 C 4,8 km/h (1 Bft)
26.10.2022 02:06 8,1 C 7,8 C 93 % 1016,7 hPa 0,0 l/m 1,8 km/h (1 Bft) N 355 0 min 0,0 UV-I 0 W/m 7,0 C 8,1 C 3,2 km/h (1 Bft)
26.10.2022 02:09 8,1 C 7,8 C 93 % 1016,6 hPa 0,0 l/m 1,4 km/h (1 Bft) N 355 0 min 0,0 UV-I 0 W/m 7,0 C 8,1 C 3,2 km/h (1 Bft)
26.10.2022 02:12 8,2 C 7,8 C 93 % 1016,6 hPa 0,0 l/m 2,6 km/h (1 Bft) N 355 0 min 0,0 UV-I 0 W/m 7,1 C 8,2 C 4,8 km/h (1 Bft)
26.10.2022 02:15 8,3 C 7,8 C 93 % 1016,7 hPa 0,0 l/m 1,4 km/h (1 Bft) N 360 0 min 0,0 UV-I 0 W/m 7,2 C 8,3 C 4,8 km/h (1 Bft)
26.10.2022 02:18 8,2 C 7,8 C 93 % 1016,7 hPa 0,0 l/m 0,2 km/h (0 Bft) N 360 0 min 0,0 UV-I 0 W/m 7,1 C 8,2 C 1,6 km/h (1 Bft)
26.10.2022 02:21 8,3 C 7,8 C 93 % 1016,6 hPa 0,0 l/m 1,9 km/h (1 Bft) N 360 0 min 0,0 UV-I 0 W/m 7,2 C 8,3 C 3,2 km/h (1 Bft)
26.10.2022 02:24 8,7 C 8,3 C 94 % 1016,6 hPa 0,0 l/m 3,7 km/h (1 Bft) N 360 0 min 0,0 UV-I 0 W/m 7,8 C 8,7 C 4,8 km/h (1 Bft)
26.10.2022 02:27 8,8 C 8,3 C 94 % 1016,6 hPa 0,0 l/m 2,4 km/h (1 Bft) N 360 0 min 0,0 UV-I 0 W/m 7,9 C 8,8 C 4,8 km/h (1 Bft)
26.10.2022 02:30 8,8 C 8,3 C 94 % 1016,6 hPa 0,0 l/m 2,7 km/h (1 Bft) N 360 0 min 0,0 UV-I 0 W/m 7,9 C 8,8 C 4,8 km/h (1 Bft)
26.10.2022 02:33 9,1 C 8,3 C 94 % 1016,5 hPa 0,0 l/m 2,1 km/h (1 Bft) N 360 0 min 0,0 UV-I 0 W/m 8,2 C 9,1 C 4,8 km/h (1 Bft)
26.10.2022 02:36 8,8 C 8,3 C 93 % 1016,5 hPa 0,0 l/m 0,8 km/h (0 Bft) N 360 0 min 0,0 UV-I 0 W/m 7,7 C 8,8 C 3,2 km/h (1 Bft)
26.10.2022 02:39 8,8 C 8,3 C 93 % 1016,6 hPa 0,0 l/m 0,6 km/h (0 Bft) N 360 0 min 0,0 UV-I 0 W/m 7,7 C 8,8 C 1,6 km/h (1 Bft)
26.10.2022 02:42 8,8 C 8,3 C 93 % 1016,5 hPa 0,0 l/m 0,3 km/h (0 Bft) N 360 0 min 0,0 UV-I 0 W/m 7,7 C 8,8 C 1,6 km/h (1 Bft)
26.10.2022 02:45 8,6 C 8,3 C 93 % 1016,6 hPa 0,0 l/m 0,0 km/h (0 Bft) N 360 0 min 0,0 UV-I 0 W/m 7,5 C 8,6 C 1,6 km/h (1 Bft)
26.10.2022 02:48 8,4 C 7,8 C 93 % 1016,5 hPa 0,0 l/m 0,5 km/h (0 Bft) N 360 0 min 0,0 UV-I 0 W/m 7,3 C 8,4 C 1,6 km/h (1 Bft)
26.10.2022 02:51 8,7 C 7,8 C 93 % 1016,5 hPa 0,0 l/m 0,1 km/h (0 Bft) N 360 0 min 0,0 UV-I 0 W/m 7,6 C 8,7 C 1,6 km/h (1 Bft)
26.10.2022 02:54 8,9 C 8,3 C 94 % 1016,6 hPa 0,0 l/m 0,0 km/h (0 Bft) N 360 0 min 0,0 UV-I 0 W/m 8,0 C 8,9 C 1,6 km/h (1 Bft)
26.10.2022 02:57 9,1 C 8,3 C 94 % 1016,5 hPa 0,0 l/m 0,7 km/h (0 Bft) N 360 0 min 0,0 UV-I 0 W/m 8,2 C 9,1 C 3,2 km/h (1 Bft)
26.10.2022 03:00 9,1 C 8,3 C 94 % 1016,6 hPa 0,0 l/m 0,4 km/h (0 Bft) N 360 0 min 0,0 UV-I 0 W/m 8,2 C 9,1 C 1,6 km/h (1 Bft)
26.10.2022 03:03 9,3 C 8,3 C 94 % 1016,5 hPa 0,0 l/m 0,1 km/h (0 Bft) N 360 0 min 0,0 UV-I 0 W/m 8,4 C 9,3 C 1,6 km/h (1 Bft)
26.10.2022 03:06 9,2 C 8,3 C 93 % 1016,4 hPa 0,0 l/m 0,0 km/h (0 Bft) N 360 0 min 0,0 UV-I 0 W/m 8,1 C 9,2 C 1,6 km/h (1 Bft)
26.10.2022 03:09 9,5 C 8,3 C 94 % 1016,4 hPa 0,0 l/m 0,0 km/h (0 Bft) N 360 0 min 0,0 UV-I 0 W/m 8,6 C 9,5 C 1,6 km/h (1 Bft)
26.10.2022 03:12 10,1 C 8,9 C 94 % 1016,5 hPa 0,0 l/m 0,9 km/h (0 Bft) N 360 0 min 0,0 UV-I 0 W/m 9,2 C 10,1 C 3,2 km/h (1 Bft)
26.10.2022 03:15 10,5 C 9,4 C 94 % 1016,3 hPa 0,0 l/m 1,1 km/h (1 Bft) N 355 0 min 0,0 UV-I 0 W/m 9,6 C 10,5 C 3,2 km/h (1 Bft)
26.10.2022 03:18 10,8 C 9,4 C 94 % 1016,4 hPa 0,0 l/m 1,8 km/h (1 Bft) N 355 0 min 0,0 UV-I 0 W/m 9,9 C 10,8 C 3,2 km/h (1 Bft)
26.10.2022 03:21 10,9 C 9,4 C 92 % 1016,3 hPa 0,0 l/m 0,7 km/h (0 Bft) N 355 0 min 0,0 UV-I 0 W/m 9,7 C 10,9 C 3,2 km/h (1 Bft)
26.10.2022 03:24 10,4 C 9,4 C 92 % 1016,2 hPa 0,0 l/m 0,3 km/h (0 Bft) N 355 0 min 0,0 UV-I 0 W/m 9,2 C 10,4 C 1,6 km/h (1 Bft)
26.10.2022 03:27 9,9 C 8,9 C 91 % 1016,2 hPa 0,0 l/m 0,0 km/h (0 Bft) N 355 0 min 0,0 UV-I 0 W/m 8,5 C 9,9 C 0,0 km/h (0 Bft)
26.10.2022 03:30 9,4 C 8,9 C 91 % 1016,3 hPa 0,0 l/m 1,6 km/h (1 Bft) N 360 0 min 0,0 UV-I 0 W/m 8,0 C 9,4 C 3,2 km/h (1 Bft)
26.10.2022 03:33 9,1 C 8,3 C 91 % 1016,3 hPa 0,0 l/m 1,7 km/h (1 Bft) N 360 0 min 0,0 UV-I 0 W/m 7,7 C 9,1 C 4,8 km/h (1 Bft)
26.10.2022 03:36 9,2 C 8,3 C 92 % 1016,3 hPa 0,0 l/m 1,8 km/h (1 Bft) N 360 0 min 0,0 UV-I 0 W/m 8,0 C 9,2 C 3,2 km/h (1 Bft)
26.10.2022 03:39 9,4 C 8,9 C 93 % 1016,2 hPa 0,0 l/m 1,6 km/h (1 Bft) N 360 0 min 0,0 UV-I 0 W/m 8,3 C 9,4 C 3,2 km/h (1 Bft)
26.10.2022 03:42 9,8 C 8,9 C 93 % 1016,3 hPa 0,0 l/m 1,1 km/h (1 Bft) N 360 0 min 0,0 UV-I 0 W/m 8,7 C 9,8 C 3,2 km/h (1 Bft)
26.10.2022 03:45 9,6 C 8,9 C 92 % 1016,2 hPa 0,0 l/m 1,3 km/h (1 Bft) N 360 0 min 0,0 UV-I 0 W/m 8,4 C 9,6 C 3,2 km/h (1 Bft)
26.10.2022 03:48 9,4 C 8,9 C 92 % 1016,2 hPa 0,0 l/m 1,4 km/h (1 Bft) N 360 0 min 0,0 UV-I 0 W/m 8,2 C 9,4 C 3,2 km/h (1 Bft)
26.10.2022 03:51 9,2 C 8,9 C 92 % 1016,2 hPa 0,0 l/m 0,2 km/h (0 Bft) N 360 0 min 0,0 UV-I 0 W/m 8,0 C 9,2 C 1,6 km/h (1 Bft)
26.10.2022 03:54 9,0 C 8,3 C 92 % 1016,1 hPa 0,0 l/m 3,0 km/h (1 Bft) N 360 0 min 0,0 UV-I 0 W/m 7,8 C 9,0 C 6,4 km/h (2 Bft)
26.10.2022 03:57 9,1 C 8,9 C 92 % 1016,2 hPa 0,0 l/m 3,0 km/h (1 Bft) N 360 0 min 0,0 UV-I 0 W/m 7,9 C 9,1 C 4,8 km/h (1 Bft)
26.10.2022 04:00 9,1 C 8,9 C 92 % 1016,2 hPa 0,0 l/m 1,9 km/h (1 Bft) N 360 0 min 0,0 UV-I 0 W/m 7,9 C 9,1 C 3,2 km/h (1 Bft)
26.10.2022 04:03 9,1 C 8,9 C 92 % 1016,1 hPa 0,0 l/m 0,9 km/h (0 Bft) N 360 0 min 0,0 UV-I 0 W/m 7,9 C 9,1 C 3,2 km/h (1 Bft)
26.10.2022 04:06 9,1 C 8,3 C 92 % 1016,2 hPa 0,0 l/m 0,7 km/h (0 Bft) N 360 0 min 0,0 UV-I 0 W/m 7,9 C 9,1 C 3,2 km/h (1 Bft)
26.10.2022 04:09 9,1 C 8,3 C 93 % 1016,1 hPa 0,0 l/m 0,0 km/h (0 Bft) N 360 0 min 0,0 UV-I 0 W/m 8,0 C 9,1 C 0,0 km/h (0 Bft)
26.10.2022 04:12 9,1 C 8,9 C 93 % 1016,1 hPa 0,0 l/m 0,7 km/h (0 Bft) N 360 0 min 0,0 UV-I 0 W/m 8,0 C 9,1 C 3,2 km/h (1 Bft)
26.10.2022 04:15 9,1 C 8,9 C 93 % 1016,0 hPa 0,0 l/m 0,8 km/h (0 Bft) N 360 0 min 0,0 UV-I 0 W/m 8,0 C 9,1 C 3,2 km/h (1 Bft)
26.10.2022 04:18 9,1 C 8,9 C 93 % 1016,1 hPa 0,0 l/m 1,4 km/h (1 Bft) N 360 0 min 0,0 UV-I 0 W/m 8,0 C 9,1 C 3,2 km/h (1 Bft)
26.10.2022 04:21 9,2 C 8,9 C 93 % 1016,0 hPa 0,0 l/m 3,5 km/h (1 Bft) N 360 0 min 0,0 UV-I 0 W/m 8,1 C 9,2 C 6,4 km/h (2 Bft)
26.10.2022 04:24 9,4 C 8,9 C 93 % 1016,1 hPa 0,0 l/m 0,9 km/h (0 Bft) N 360 0 min 0,0 UV-I 0 W/m 8,3 C 9,4 C 4,8 km/h (1 Bft)
26.10.2022 04:27 9,4 C 8,9 C 93 % 1016,1 hPa 0,0 l/m 0,6 km/h (0 Bft) N 360 0 min 0,0 UV-I 0 W/m 8,3 C 9,4 C 1,6 km/h (1 Bft)
26.10.2022 04:30 9,4 C 8,9 C 93 % 1016,1 hPa 0,0 l/m 1,2 km/h (1 Bft) N 360 0 min 0,0 UV-I 0 W/m 8,3 C 9,4 C 3,2 km/h (1 Bft)
26.10.2022 04:33 9,3 C 8,9 C 93 % 1016,0 hPa 0,0 l/m 0,2 km/h (0 Bft) N 360 0 min 0,0 UV-I 0 W/m 8,2 C 9,3 C 1,6 km/h (1 Bft)
26.10.2022 04:36 9,3 C 8,9 C 93 % 1016,0 hPa 0,0 l/m 1,2 km/h (1 Bft) N 360 0 min 0,0 UV-I 0 W/m 8,2 C 9,3 C 3,2 km/h (1 Bft)
26.10.2022 04:39 9,3 C 8,9 C 93 % 1016,0 hPa 0,0 l/m 1,4 km/h (1 Bft) N 360 0 min 0,0 UV-I 0 W/m 8,2 C 9,3 C 3,2 km/h (1 Bft)
26.10.2022 04:42 9,3 C 8,9 C 93 % 1016,0 hPa 0,0 l/m 0,5 km/h (0 Bft) N 360 0 min 0,0 UV-I 0 W/m 8,2 C 9,3 C 1,6 km/h (1 Bft)
26.10.2022 04:45 9,3 C 8,9 C 93 % 1016,0 hPa 0,0 l/m 0,3 km/h (0 Bft) N-NW 348 0 min 0,0 UV-I 0 W/m 8,2 C 9,3 C 1,6 km/h (1 Bft)
26.10.2022 04:48 9,4 C 8,9 C 93 % 1015,9 hPa 0,2 l/m 1,5 km/h (1 Bft) O-NO 78 0 min 0,0 UV-I 0 W/m 8,3 C 9,4 C 4,8 km/h (1 Bft)
26.10.2022 04:51 9,8 C 8,9 C 94 % 1016,1 hPa 0,0 l/m 1,5 km/h (1 Bft) O-SO 123 0 min 0,0 UV-I 0 W/m 8,9 C 9,8 C 4,8 km/h (1 Bft)
26.10.2022 04:54 9,9 C 9,4 C 93 % 1016,0 hPa 0,0 l/m 2,0 km/h (1 Bft) O-SO 123 0 min 0,0 UV-I 0 W/m 8,8 C 9,9 C 3,2 km/h (1 Bft)
26.10.2022 04:57 9,9 C 9,4 C 93 % 1016,0 hPa 0,0 l/m 1,9 km/h (1 Bft) O-SO 123 0 min 0,0 UV-I 0 W/m 8,8 C 9,9 C 3,2 km/h (1 Bft)
26.10.2022 05:00 10,3 C 9,4 C 94 % 1015,9 hPa 0,0 l/m 0,6 km/h (0 Bft) O-SO 123 0 min 0,0 UV-I 0 W/m 9,4 C 10,3 C 3,2 km/h (1 Bft)
26.10.2022 05:03 10,1 C 9,4 C 93 % 1016,0 hPa 0,0 l/m 0,1 km/h (0 Bft) O-SO 123 0 min 0,0 UV-I 0 W/m 9,0 C 10,1 C 1,6 km/h (1 Bft)
26.10.2022 05:06 10,0 C 9,4 C 93 % 1015,9 hPa 0,0 l/m 0,4 km/h (0 Bft) O-SO 123 0 min 0,0 UV-I 0 W/m 8,9 C 10,0 C 1,6 km/h (1 Bft)
26.10.2022 05:09 10,1 C 9,4 C 93 % 1015,8 hPa 0,0 l/m 0,8 km/h (0 Bft) O-SO 123 0 min 0,0 UV-I 0 W/m 9,0 C 10,1 C 3,2 km/h (1 Bft)
26.10.2022 05:12 10,2 C 9,4 C 93 % 1015,9 hPa 0,0 l/m 1,0 km/h (0 Bft) O-SO 123 0 min 0,0 UV-I 0 W/m 9,1 C 10,2 C 3,2 km/h (1 Bft)
26.10.2022 05:15 10,1 C 9,4 C 92 % 1015,9 hPa 0,0 l/m 0,2 km/h (0 Bft) O-SO 123 0 min 0,0 UV-I 0 W/m 8,9 C 10,1 C 1,6 km/h (1 Bft)
26.10.2022 05:18 10,2 C 9,4 C 93 % 1015,8 hPa 0,0 l/m 0,4 km/h (0 Bft) O-SO 123 0 min 0,0 UV-I 0 W/m 9,1 C 10,2 C 1,6 km/h (1 Bft)
26.10.2022 05:21 10,2 C 9,4 C 92 % 1015,9 hPa 0,0 l/m 0,4 km/h (0 Bft) O-SO 123 0 min 0,0 UV-I 0 W/m 9,0 C 10,2 C 1,6 km/h (1 Bft)
26.10.2022 05:24 10,2 C 9,4 C 93 % 1015,9 hPa 0,0 l/m 0,2 km/h (0 Bft) O-SO 123 0 min 0,0 UV-I 0 W/m 9,1 C 10,2 C 1,6 km/h (1 Bft)
26.10.2022 05:27 9,9 C 8,9 C 92 % 1015,9 hPa 0,0 l/m 0,1 km/h (0 Bft) O-SO 123 0 min 0,0 UV-I 0 W/m 8,7 C 9,9 C 1,6 km/h (1 Bft)
26.10.2022 05:30 9,8 C 9,4 C 92 % 1015,9 hPa 0,0 l/m 0,0 km/h (0 Bft) O-SO 123 0 min 0,0 UV-I 0 W/m 8,6 C 9,8 C 0,0 km/h (0 Bft)
26.10.2022 05:33 9,6 C 9,4 C 92 % 1015,9 hPa 0,0 l/m 0,9 km/h (0 Bft) O-SO 123 0 min 0,0 UV-I 0 W/m 8,4 C 9,6 C 1,6 km/h (1 Bft)
26.10.2022 05:36 9,4 C 8,9 C 92 % 1015,8 hPa 0,0 l/m 1,6 km/h (1 Bft) O-SO 123 0 min 0,0 UV-I 0 W/m 8,2 C 9,4 C 3,2 km/h (1 Bft)
26.10.2022 05:39 9,4 C 8,9 C 93 % 1015,8 hPa 0,0 l/m 3,6 km/h (1 Bft) O-SO 123 0 min 0,0 UV-I 0 W/m 8,3 C 9,4 C 4,8 km/h (1 Bft)
26.10.2022 05:42 9,6 C 8,9 C 93 % 1015,8 hPa 0,0 l/m 3,0 km/h (1 Bft) O-SO 123 0 min 0,0 UV-I 0 W/m 8,5 C 9,6 C 4,8 km/h (1 Bft)
26.10.2022 05:45 9,7 C 8,9 C 93 % 1015,7 hPa 0,0 l/m 1,5 km/h (1 Bft) O-SO 123 0 min 0,0 UV-I 0 W/m 8,6 C 9,7 C 3,2 km/h (1 Bft)
26.10.2022 05:48 9,8 C 8,9 C 93 % 1015,8 hPa 0,0 l/m 1,4 km/h (1 Bft) O-SO 123 0 min 0,0 UV-I 0 W/m 8,7 C 9,8 C 3,2 km/h (1 Bft)
26.10.2022 05:51 9,9 C 9,4 C 93 % 1015,8 hPa 0,0 l/m 0,1 km/h (0 Bft) O-SO 123 0 min 0,0 UV-I 0 W/m 8,8 C 9,9 C 1,6 km/h (1 Bft)
26.10.2022 05:54 9,9 C 9,4 C 93 % 1015,8 hPa 0,0 l/m 0,0 km/h (0 Bft) O-SO 123 0 min 0,0 UV-I 0 W/m 8,8 C 9,9 C 0,0 km/h (0 Bft)
26.10.2022 05:57 10,1 C 9,4 C 93 % 1015,8 hPa 0,0 l/m 0,3 km/h (0 Bft) O-SO 123 0 min 0,0 UV-I 0 W/m 9,0 C 10,1 C 3,2 km/h (1 Bft)
26.10.2022 06:00 10,1 C 9,4 C 93 % 1015,8 hPa 0,0 l/m 0,1 km/h (0 Bft) O-SO 123 0 min 0,0 UV-I 0 W/m 9,0 C 10,1 C 1,6 km/h (1 Bft)
26.10.2022 06:03 10,1 C 9,4 C 93 % 1015,7 hPa 0,0 l/m 0,7 km/h (0 Bft) O-SO 123 0 min 0,0 UV-I 0 W/m 9,0 C 10,1 C 3,2 km/h (1 Bft)
26.10.2022 06:06 10,1 C 9,4 C 93 % 1015,7 hPa 0,0 l/m 1,3 km/h (1 Bft) O-SO 123 0 min 0,0 UV-I 0 W/m 9,0 C 10,1 C 3,2 km/h (1 Bft)
26.10.2022 06:09 10,3 C 9,4 C 93 % 1015,8 hPa 0,0 l/m 3,6 km/h (1 Bft) SO 130 0 min 0,0 UV-I 0 W/m 9,2 C 10,3 C 6,4 km/h (2 Bft)
26.10.2022 06:12 10,6 C 9,4 C 93 % 1015,8 hPa 0,0 l/m 3,2 km/h (1 Bft) SO 139 0 min 0,0 UV-I 0 W/m 9,5 C 10,6 C 6,4 km/h (2 Bft)
26.10.2022 06:15 10,8 C 10,0 C 92 % 1015,7 hPa 0,0 l/m 4,8 km/h (1 Bft) SO 130 0 min 0,0 UV-I 0 W/m 9,6 C 10,8 C 12,9 km/h (3 Bft)
26.10.2022 06:18 10,8 C 10,0 C 92 % 1015,7 hPa 0,0 l/m 2,1 km/h (1 Bft) SO 130 0 min 0,0 UV-I 0 W/m 9,6 C 10,8 C 3,2 km/h (1 Bft)
26.10.2022 06:21 10,8 C 9,4 C 91 % 1015,7 hPa 0,0 l/m 2,5 km/h (1 Bft) SO 128 0 min 0,0 UV-I 0 W/m 9,4 C 10,8 C 6,4 km/h (2 Bft)
26.10.2022 06:24 11,1 C 10,0 C 91 % 1015,6 hPa 0,0 l/m 2,4 km/h (1 Bft) SO 128 0 min 0,0 UV-I 0 W/m 9,7 C 11,1 C 4,8 km/h (1 Bft)
26.10.2022 06:27 11,3 C 10,0 C 90 % 1015,7 hPa 0,0 l/m 0,6 km/h (0 Bft) SO 128 0 min 0,0 UV-I 0 W/m 9,7 C 11,3 C 3,2 km/h (1 Bft)
26.10.2022 06:30 11,4 C 10,0 C 89 % 1015,6 hPa 0,0 l/m 1,9 km/h (1 Bft) O-SO 106 0 min 0,0 UV-I 0 W/m 9,7 C 11,4 C 6,4 km/h (2 Bft)
26.10.2022 06:33 11,5 C 9,4 C 88 % 1015,6 hPa 0,0 l/m 2,1 km/h (1 Bft) O-SO 106 0 min 0,0 UV-I 0 W/m 9,6 C 11,5 C 3,2 km/h (1 Bft)
26.10.2022 06:36 11,1 C 9,4 C 88 % 1015,6 hPa 0,0 l/m 2,0 km/h (1 Bft) O-SO 107 0 min 0,0 UV-I 0 W/m 9,2 C 11,1 C 4,8 km/h (1 Bft)
26.10.2022 06:39 10,9 C 9,4 C 89 % 1015,5 hPa 0,0 l/m 1,7 km/h (1 Bft) O-SO 107 0 min 0,0 UV-I 0 W/m 9,2 C 10,9 C 3,2 km/h (1 Bft)
26.10.2022 06:42 10,8 C 9,4 C 89 % 1015,5 hPa 0,2 l/m 1,3 km/h (1 Bft) O-SO 107 0 min 0,0 UV-I 0 W/m 9,1 C 10,8 C 3,2 km/h (1 Bft)
26.10.2022 06:45 10,9 C 9,4 C 89 % 1015,5 hPa 0,0 l/m 3,1 km/h (1 Bft) O-SO 107 0 min 0,0 UV-I 0 W/m 9,2 C 10,9 C 6,4 km/h (2 Bft)
26.10.2022 06:48 11,2 C 9,4 C 89 % 1015,6 hPa 0,0 l/m 2,2 km/h (1 Bft) O-SO 107 0 min 0,0 UV-I 0 W/m 9,5 C 11,2 C 4,8 km/h (1 Bft)
26.10.2022 06:51 11,1 C 9,4 C 88 % 1015,5 hPa 0,0 l/m 2,9 km/h (1 Bft) O-SO 107 0 min 0,0 UV-I 0 W/m 9,2 C 11,1 C 6,4 km/h (2 Bft)
26.10.2022 06:54 10,8 C 9,4 C 89 % 1015,5 hPa 0,0 l/m 2,7 km/h (1 Bft) O-SO 107 0 min 0,0 UV-I 0 W/m 9,1 C 10,8 C 4,8 km/h (1 Bft)
26.10.2022 06:57 10,9 C 9,4 C 89 % 1015,5 hPa 0,0 l/m 0,7 km/h (0 Bft) O-SO 107 0 min 0,0 UV-I 0 W/m 9,2 C 10,9 C 3,2 km/h (1 Bft)
26.10.2022 07:00 11,1 C 9,4 C 89 % 1015,5 hPa 0,0 l/m 3,8 km/h (1 Bft) O-SO 115 0 min 0,0 UV-I 0 W/m 9,4 C 11,1 C 6,4 km/h (2 Bft)
26.10.2022 07:01 11,2 C 10,0 C 89 % 1015,5 hPa 0,0 l/m 3,2 km/h (1 Bft) O-SO 112 0 min 0,0 UV-I 0 W/m 9,5 C 11,2 C 4,8 km/h (1 Bft)
26.10.2022 07:03 11,3 C 10,0 C 88 % 1015,5 hPa 0,0 l/m 5,1 km/h (1 Bft) S-SO 149 0 min 0,0 UV-I 0 W/m 9,4 C 11,3 C 6,4 km/h (2 Bft)
26.10.2022 07:06 11,4 C 10,0 C 87 % 1015,4 hPa 0,0 l/m 4,2 km/h (1 Bft) S-SO 148 0 min 0,0 UV-I 0 W/m 9,3 C 11,4 C 8,0 km/h (2 Bft)
26.10.2022 07:09 11,5 C 10,0 C 87 % 1015,4 hPa 0,0 l/m 4,0 km/h (1 Bft) SO 145 0 min 0,0 UV-I 0 W/m 9,4 C 11,5 C 8,0 km/h (2 Bft)
26.10.2022 07:12 11,5 C 10,0 C 87 % 1015,4 hPa 0,0 l/m 5,0 km/h (1 Bft) SO 137 0 min 0,0 UV-I 0 W/m 9,4 C 11,5 C 8,0 km/h (2 Bft)
26.10.2022 07:15 11,5 C 10,0 C 87 % 1015,5 hPa 0,0 l/m 6,1 km/h (2 Bft) S-SO 161 0 min 0,0 UV-I 0 W/m 9,4 C 11,5 C 11,3 km/h (2 Bft)
26.10.2022 07:18 11,6 C 10,0 C 86 % 1015,6 hPa 0,0 l/m 9,4 km/h (2 Bft) SO 131 0 min 0,0 UV-I 0 W/m 9,3 C 9,7 C 17,7 km/h (3 Bft)
26.10.2022 07:21 11,7 C 10,6 C 86 % 1015,6 hPa 0,0 l/m 9,2 km/h (2 Bft) S 187 0 min 0,0 UV-I 0 W/m 9,4 C 9,9 C 19,3 km/h (3 Bft)
26.10.2022 07:24 11,7 C 10,0 C 85 % 1015,6 hPa 0,0 l/m 7,9 km/h (2 Bft) S-SO 165 0 min 0,0 UV-I 0 W/m 9,3 C 10,7 C 14,5 km/h (3 Bft)
26.10.2022 07:27 11,7 C 10,0 C 86 % 1015,7 hPa 0,0 l/m 9,6 km/h (2 Bft) S-SO 150 0 min 0,0 UV-I 0 W/m 9,4 C 9,7 C 14,5 km/h (3 Bft)
26.10.2022 07:30 11,8 C 10,6 C 85 % 1015,6 hPa 0,0 l/m 8,9 km/h (2 Bft) S-SO 149 0 min 0,0 UV-I 0 W/m 9,4 C 10,2 C 14,5 km/h (3 Bft)
26.10.2022 07:33 11,8 C 10,6 C 85 % 1015,7 hPa 0,0 l/m 7,1 km/h (2 Bft) S-SO 158 0 min 0,0 UV-I 0 W/m 9,4 C 11,3 C 11,3 km/h (2 Bft)
26.10.2022 07:36 11,8 C 10,6 C 85 % 1015,6 hPa 0,0 l/m 7,2 km/h (2 Bft) S-SO 155 0 min 0,0 UV-I 0 W/m 9,4 C 11,3 C 11,3 km/h (2 Bft)
26.10.2022 07:39 11,9 C 10,6 C 85 % 1015,7 hPa 0,0 l/m 8,2 km/h (2 Bft) S-SO 147 0 min 0,0 UV-I 0 W/m 9,5 C 10,7 C 16,1 km/h (3 Bft)
26.10.2022 07:42 11,9 C 10,6 C 85 % 1015,8 hPa 0,0 l/m 6,2 km/h (2 Bft) S-SO 157 0 min 0,0 UV-I 0 W/m 9,5 C 11,9 C 11,3 km/h (2 Bft)
26.10.2022 07:45 11,9 C 11,1 C 85 % 1015,7 hPa 0,0 l/m 7,8 km/h (2 Bft) SO 138 0 min 0,0 UV-I 0 W/m 9,5 C 11,0 C 12,9 km/h (3 Bft)
26.10.2022 07:48 11,9 C 10,6 C 85 % 1015,8 hPa 0,0 l/m 5,7 km/h (1 Bft) SO 144 0 min 0,0 UV-I 0 W/m 9,5 C 11,9 C 9,7 km/h (2 Bft)
26.10.2022 07:51 11,8 C 10,6 C 85 % 1015,9 hPa 0,0 l/m 5,8 km/h (2 Bft) S-SO 157 0 min 0,0 UV-I 0 W/m 9,4 C 11,8 C 9,7 km/h (2 Bft)
26.10.2022 07:54 11,8 C 10,6 C 85 % 1015,8 hPa 0,0 l/m 7,8 km/h (2 Bft) S-SO 147 0 min 0,0 UV-I 0 W/m 9,4 C 10,9 C 17,7 km/h (3 Bft)
26.10.2022 07:57 11,9 C 10,6 C 85 % 1015,9 hPa 0,0 l/m 6,6 km/h (2 Bft) SO 144 0 min 0,0 UV-I 0 W/m 9,5 C 11,8 C 12,9 km/h (3 Bft)
26.10.2022 08:00 11,9 C 10,6 C 85 % 1015,9 hPa 0,0 l/m 6,7 km/h (2 Bft) S-SO 152 0 min 0,0 UV-I 0 W/m 9,5 C 11,7 C 11,3 km/h (2 Bft)
26.10.2022 08:03 11,9 C 10,6 C 85 % 1015,8 hPa 0,0 l/m 5,1 km/h (1 Bft) SO 139 0 min 0,0 UV-I 0 W/m 9,5 C 11,9 C 8,0 km/h (2 Bft)
26.10.2022 08:06 11,8 C 10,6 C 85 % 1015,8 hPa 0,0 l/m 6,9 km/h (2 Bft) SO 133 0 min 0,0 UV-I 0 W/m 9,4 C 11,5 C 11,3 km/h (2 Bft)
26.10.2022 08:09 11,7 C 10,0 C 85 % 1015,8 hPa 0,0 l/m 5,1 km/h (1 Bft) O-SO 120 0 min 0,0 UV-I 0 W/m 9,3 C 11,7 C 11,3 km/h (2 Bft)
26.10.2022 08:12 11,4 C 10,0 C 86 % 1015,9 hPa 0,0 l/m 4,6 km/h (1 Bft) SO 146 0 min 0,0 UV-I 0 W/m 9,1 C 11,4 C 6,4 km/h (2 Bft)
26.10.2022 08:15 11,3 C 9,4 C 86 % 1016,0 hPa 0,0 l/m 2,9 km/h (1 Bft) S-SO 147 0 min 0,0 UV-I 0 W/m 9,0 C 11,3 C 4,8 km/h (1 Bft)
26.10.2022 08:18 11,3 C 9,4 C 86 % 1016,1 hPa 0,0 l/m 4,6 km/h (1 Bft) S-SO 153 0 min 0,0 UV-I 0 W/m 9,0 C 11,3 C 9,7 km/h (2 Bft)
26.10.2022 08:21 11,3 C 9,4 C 86 % 1016,1 hPa 0,0 l/m 5,1 km/h (1 Bft) SO 129 0 min 0,0 UV-I 0 W/m 9,0 C 11,3 C 11,3 km/h (2 Bft)
26.10.2022 08:24 11,4 C 10,0 C 86 % 1016,1 hPa 0,0 l/m 6,8 km/h (2 Bft) SO 134 0 min 0,0 UV-I 3 W/m 9,1 C 11,1 C 12,9 km/h (3 Bft)
26.10.2022 08:27 11,3 C 10,0 C 87 % 1016,2 hPa 0,0 l/m 5,0 km/h (1 Bft) SO 142 0 min 0,0 UV-I 5 W/m 9,2 C 11,3 C 11,3 km/h (2 Bft)
26.10.2022 08:30 11,3 C 9,4 C 86 % 1016,2 hPa 0,0 l/m 5,1 km/h (1 Bft) SO 136 0 min 0,0 UV-I 6 W/m 9,0 C 11,3 C 8,0 km/h (2 Bft)
26.10.2022 08:33 11,2 C 9,4 C 86 % 1016,4 hPa 0,0 l/m 5,1 km/h (1 Bft) S-SO 150 0 min 0,0 UV-I 7 W/m 8,9 C 11,2 C 6,4 km/h (2 Bft)
26.10.2022 08:36 11,2 C 9,4 C 87 % 1016,4 hPa 0,0 l/m 7,7 km/h (2 Bft) S-SO 163 0 min 0,0 UV-I 8 W/m 9,1 C 10,3 C 12,9 km/h (3 Bft)
26.10.2022 08:39 11,2 C 9,4 C 87 % 1016,4 hPa 0,0 l/m 6,4 km/h (2 Bft) S 186 0 min 0,0 UV-I 9 W/m 9,1 C 11,2 C 9,7 km/h (2 Bft)
26.10.2022 08:42 11,3 C 10,0 C 87 % 1016,6 hPa 0,0 l/m 6,5 km/h (2 Bft) S-SW 192 0 min 0,0 UV-I 9 W/m 9,2 C 11,3 C 11,3 km/h (2 Bft)
26.10.2022 08:45 11,4 C 10,0 C 87 % 1016,5 hPa 0,0 l/m 6,8 km/h (2 Bft) S 174 0 min 0,0 UV-I 11 W/m 9,3 C 11,1 C 9,7 km/h (2 Bft)
26.10.2022 08:48 11,3 C 10,0 C 87 % 1016,5 hPa 0,0 l/m 5,9 km/h (2 Bft) S 178 0 min 0,0 UV-I 11 W/m 9,2 C 11,3 C 8,0 km/h (2 Bft)
26.10.2022 08:51 11,3 C 10,0 C 87 % 1016,5 hPa 0,0 l/m 5,8 km/h (2 Bft) S 179 0 min 0,0 UV-I 16 W/m 9,2 C 11,3 C 12,9 km/h (3 Bft)
26.10.2022 08:54 11,3 C 10,0 C 88 % 1016,6 hPa 0,0 l/m 7,1 km/h (2 Bft) S-SO 166 0 min 0,0 UV-I 33 W/m 9,4 C 10,8 C 11,3 km/h (2 Bft)
26.10.2022 08:57 11,6 C 10,6 C 88 % 1016,7 hPa 0,0 l/m 6,8 km/h (2 Bft) S 185 0 min 0,0 UV-I 35 W/m 9,7 C 11,3 C 14,5 km/h (3 Bft)
26.10.2022 09:00 11,7 C 11,1 C 88 % 1016,7 hPa 0,0 l/m 6,3 km/h (2 Bft) S 184 0 min 0,0 UV-I 40 W/m 9,8 C 11,7 C 11,3 km/h (2 Bft)
26.10.2022 09:03 11,8 C 11,1 C 88 % 1016,7 hPa 0,0 l/m 7,7 km/h (2 Bft) S 186 0 min 0,0 UV-I 41 W/m 9,9 C 10,9 C 12,9 km/h (3 Bft)
26.10.2022 09:06 12,0 C 11,7 C 88 % 1016,7 hPa 0,0 l/m 9,2 km/h (2 Bft) S 186 0 min 0,0 UV-I 46 W/m 10,1 C 10,2 C 14,5 km/h (3 Bft)
26.10.2022 09:09 12,2 C 11,7 C 87 % 1016,6 hPa 0,0 l/m 7,2 km/h (2 Bft) S-SO 161 0 min 0,0 UV-I 39 W/m 10,1 C 11,7 C 12,9 km/h (3 Bft)
26.10.2022 09:12 12,1 C 11,7 C 87 % 1016,8 hPa 0,0 l/m 4,5 km/h (1 Bft) S-SO 163 0 min 0,0 UV-I 33 W/m 10,0 C 12,1 C 8,0 km/h (2 Bft)
26.10.2022 09:15 11,9 C 11,1 C 87 % 1016,6 hPa 0,0 l/m 2,7 km/h (1 Bft) S-SO 163 0 min 0,0 UV-I 25 W/m 9,8 C 11,9 C 6,4 km/h (2 Bft)
26.10.2022 09:18 11,6 C 10,6 C 87 % 1016,8 hPa 0,0 l/m 4,2 km/h (1 Bft) S-SO 158 0 min 0,0 UV-I 23 W/m 9,5 C 11,6 C 8,0 km/h (2 Bft)
26.10.2022 09:21 11,4 C 10,6 C 88 % 1016,8 hPa 0,0 l/m 5,2 km/h (1 Bft) O-SO 119 0 min 0,0 UV-I 26 W/m 9,5 C 11,4 C 11,3 km/h (2 Bft)
26.10.2022 09:24 11,3 C 10,6 C 88 % 1016,7 hPa 0,0 l/m 2,4 km/h (1 Bft) O-SO 119 0 min 0,0 UV-I 26 W/m 9,4 C 11,3 C 4,8 km/h (1 Bft)
26.10.2022 09:27 11,3 C 10,6 C 89 % 1016,8 hPa 0,0 l/m 4,2 km/h (1 Bft) O-SO 118 0 min 0,0 UV-I 25 W/m 9,6 C 11,3 C 6,4 km/h (2 Bft)
26.10.2022 09:30 11,3 C 10,0 C 89 % 1016,8 hPa 0,0 l/m 3,8 km/h (1 Bft) O-SO 117 0 min 0,0 UV-I 27 W/m 9,6 C 11,3 C 4,8 km/h (1 Bft)
26.10.2022 09:33 11,2 C 10,0 C 89 % 1016,7 hPa 0,0 l/m 1,5 km/h (1 Bft) O-SO 117 0 min 0,0 UV-I 28 W/m 9,5 C 11,2 C 3,2 km/h (1 Bft)
26.10.2022 09:36 11,2 C 10,0 C 89 % 1016,8 hPa 0,0 l/m 1,2 km/h (1 Bft) O-SO 117 0 min 0,0 UV-I 25 W/m 9,5 C 11,2 C 3,2 km/h (1 Bft)
26.10.2022 09:39 11,2 C 10,0 C 90 % 1016,9 hPa 0,0 l/m 1,0 km/h (0 Bft) O-SO 117 0 min 0,0 UV-I 29 W/m 9,6 C 11,2 C 3,2 km/h (1 Bft)
26.10.2022 09:42 11,2 C 10,0 C 89 % 1017,1 hPa 0,0 l/m 3,9 km/h (1 Bft) S-SO 159 0 min 0,0 UV-I 36 W/m 9,5 C 11,2 C 8,0 km/h (2 Bft)
26.10.2022 09:45 11,4 C 11,1 C 90 % 1017,2 hPa 0,0 l/m 6,5 km/h (2 Bft) S 178 0 min 0,0 UV-I 57 W/m 9,8 C 11,4 C 9,7 km/h (2 Bft)
26.10.2022 09:48 11,6 C 11,1 C 90 % 1017,2 hPa 0,0 l/m 7,2 km/h (2 Bft) S-SW 195 0 min 0,0 UV-I 35 W/m 10,0 C 11,1 C 11,3 km/h (2 Bft)
26.10.2022 09:51 11,8 C 11,1 C 90 % 1017,2 hPa 0,0 l/m 8,6 km/h (2 Bft) S 172 0 min 0,1 UV-I 40 W/m 10,2 C 10,4 C 14,5 km/h (3 Bft)
26.10.2022 09:54 12,1 C 12,2 C 89 % 1017,4 hPa 0,0 l/m 10,5 km/h (2 Bft) S-SW 196 0 min 0,2 UV-I 44 W/m 10,3 C 9,7 C 17,7 km/h (3 Bft)
26.10.2022 09:57 12,2 C 11,7 C 89 % 1017,4 hPa 0,0 l/m 9,0 km/h (2 Bft) S 175 0 min 0,0 UV-I 31 W/m 10,4 C 10,6 C 16,1 km/h (3 Bft)
26.10.2022 10:00 12,2 C 12,2 C 88 % 1017,4 hPa 0,0 l/m 8,9 km/h (2 Bft) S 173 0 min 0,4 UV-I 66 W/m 10,3 C 10,6 C 14,5 km/h (3 Bft)
26.10.2022 10:03 12,4 C 12,8 C 88 % 1017,4 hPa 0,0 l/m 10,7 km/h (2 Bft) S-SW 197 0 min 0,4 UV-I 72 W/m 10,5 C 9,9 C 17,7 km/h (3 Bft)
26.10.2022 10:06 12,6 C 12,8 C 88 % 1017,5 hPa 0,0 l/m 8,5 km/h (2 Bft) S 190 0 min 0,2 UV-I 82 W/m 10,7 C 11,3 C 12,9 km/h (3 Bft)
26.10.2022 10:09 12,7 C 12,8 C 88 % 1017,4 hPa 0,0 l/m 9,9 km/h (2 Bft) S 179 0 min 0,6 UV-I 149 W/m 10,8 C 10,6 C 17,7 km/h (3 Bft)
26.10.2022 10:12 12,8 C 12,8 C 88 % 1017,4 hPa 0,0 l/m 10,8 km/h (2 Bft) S 174 0 min 0,7 UV-I 107 W/m 10,9 C 10,3 C 19,3 km/h (3 Bft)
26.10.2022 10:15 13,0 C 13,3 C 88 % 1017,4 hPa 0,0 l/m 12,3 km/h (3 Bft) S 187 0 min 0,7 UV-I 135 W/m 11,1 C 9,8 C 17,7 km/h (3 Bft)
26.10.2022 10:18 13,1 C 13,3 C 87 % 1017,6 hPa 0,0 l/m 14,1 km/h (3 Bft) S 173 0 min 0,7 UV-I 151 W/m 11,0 C 9,2 C 24,1 km/h (4 Bft)
26.10.2022 10:21 13,1 C 13,3 C 87 % 1017,6 hPa 0,0 l/m 12,3 km/h (3 Bft) S-SW 203 0 min 0,7 UV-I 94 W/m 11,0 C 10,0 C 27,4 km/h (4 Bft)
26.10.2022 10:24 13,2 C 13,9 C 87 % 1017,5 hPa 0,0 l/m 15,7 km/h (3 Bft) SW 214 0 min 0,8 UV-I 174 W/m 11,1 C 8,8 C 27,4 km/h (4 Bft)
26.10.2022 10:27 13,2 C 14,4 C 87 % 1017,6 hPa 0,0 l/m 17,5 km/h (3 Bft) S-SO 167 0 min 0,8 UV-I 106 W/m 11,1 C 8,2 C 29,0 km/h (5 Bft)
26.10.2022 10:30 13,2 C 15,0 C 87 % 1017,6 hPa 0,0 l/m 15,2 km/h (3 Bft) S 184 0 min 0,8 UV-I 109 W/m 11,1 C 8,9 C 27,4 km/h (4 Bft)
26.10.2022 10:33 13,4 C 15,0 C 87 % 1017,6 hPa 0,0 l/m 13,7 km/h (3 Bft) S 173 0 min 0,9 UV-I 232 W/m 11,3 C 9,7 C 22,5 km/h (4 Bft)
26.10.2022 10:36 13,4 C 15,0 C 87 % 1017,7 hPa 0,0 l/m 14,0 km/h (3 Bft) S-SW 192 0 min 1,0 UV-I 201 W/m 11,3 C 9,6 C 24,1 km/h (4 Bft)
26.10.2022 10:39 13,5 C 15,0 C 86 % 1017,7 hPa 0,0 l/m 18,5 km/h (3 Bft) S 188 0 min 1,0 UV-I 281 W/m 11,2 C 8,2 C 30,6 km/h (5 Bft)
26.10.2022 10:42 13,5 C 15,6 C 86 % 1017,7 hPa 0,0 l/m 17,6 km/h (3 Bft) S-SW 195 0 min 1,1 UV-I 258 W/m 11,2 C 8,5 C 30,6 km/h (5 Bft)
26.10.2022 10:45 13,6 C 16,1 C 86 % 1017,9 hPa 0,0 l/m 13,4 km/h (3 Bft) S 190 0 min 1,1 UV-I 272 W/m 11,3 C 10,1 C 20,9 km/h (4 Bft)
26.10.2022 10:48 13,7 C 16,7 C 86 % 1017,8 hPa 0,0 l/m 14,5 km/h (3 Bft) S 183 0 min 1,2 UV-I 296 W/m 11,4 C 9,8 C 25,7 km/h (4 Bft)
26.10.2022 10:51 13,7 C 16,7 C 86 % 1017,8 hPa 0,0 l/m 13,3 km/h (3 Bft) SW 215 0 min 1,1 UV-I 292 W/m 11,4 C 10,2 C 19,3 km/h (3 Bft)
26.10.2022 10:54 13,8 C 17,8 C 86 % 1017,7 hPa 0,0 l/m 14,2 km/h (3 Bft) S 187 0 min 1,2 UV-I 292 W/m 11,5 C 10,0 C 20,9 km/h (4 Bft)
26.10.2022 10:57 13,8 C 17,8 C 86 % 1017,9 hPa 0,0 l/m 15,9 km/h (3 Bft) S-SW 192 0 min 1,2 UV-I 298 W/m 11,5 C 9,4 C 24,1 km/h (4 Bft)
26.10.2022 11:00 13,9 C 17,8 C 86 % 1017,9 hPa 0,0 l/m 17,6 km/h (3 Bft) S-SW 197 3 min 1,3 UV-I 308 W/m 11,6 C 9,0 C 24,1 km/h (4 Bft)
26.10.2022 11:03 13,9 C 17,2 C 86 % 1017,9 hPa 0,0 l/m 16,2 km/h (3 Bft) SW 223 3 min 1,2 UV-I 309 W/m 11,6 C 9,5 C 30,6 km/h (5 Bft)
26.10.2022 11:06 13,9 C 17,8 C 86 % 1017,8 hPa 0,0 l/m 18,3 km/h (3 Bft) S 174 3 min 1,3 UV-I 329 W/m 11,6 C 8,8 C 25,7 km/h (4 Bft)
26.10.2022 11:09 14,0 C 17,2 C 86 % 1018,0 hPa 0,0 l/m 17,4 km/h (3 Bft) S-SW 193 0 min 1,3 UV-I 273 W/m 11,7 C 9,2 C 35,4 km/h (5 Bft)
26.10.2022 11:12 14,0 C 17,8 C 86 % 1017,9 hPa 0,0 l/m 17,4 km/h (3 Bft) S 189 3 min 1,4 UV-I 304 W/m 11,7 C 9,2 C 25,7 km/h (4 Bft)
26.10.2022 11:15 14,1 C 18,3 C 86 % 1017,9 hPa 0,0 l/m 15,6 km/h (3 Bft) S-SW 201 3 min 1,4 UV-I 338 W/m 11,8 C 9,9 C 25,7 km/h (4 Bft)
26.10.2022 11:18 14,2 C 18,3 C 86 % 1018,0 hPa 0,0 l/m 14,6 km/h (3 Bft) S 179 3 min 1,4 UV-I 362 W/m 11,9 C 10,4 C 30,6 km/h (5 Bft)
26.10.2022 11:21 14,3 C 18,9 C 85 % 1018,0 hPa 0,0 l/m 16,4 km/h (3 Bft) S-SW 192 3 min 1,4 UV-I 368 W/m 11,8 C 9,9 C 27,4 km/h (4 Bft)
26.10.2022 11:24 14,4 C 18,3 C 85 % 1018,0 hPa 0,0 l/m 15,0 km/h (3 Bft) S-SW 199 3 min 1,4 UV-I 337 W/m 11,9 C 10,5 C 22,5 km/h (4 Bft)
26.10.2022 11:27 14,5 C 18,9 C 85 % 1017,9 hPa 0,0 l/m 16,2 km/h (3 Bft) S-SW 212 0 min 1,5 UV-I 263 W/m 12,0 C 10,2 C 24,1 km/h (4 Bft)
26.10.2022 11:30 14,5 C 19,4 C 85 % 1018,1 hPa 0,0 l/m 15,8 km/h (3 Bft) S-SW 204 3 min 1,6 UV-I 412 W/m 12,0 C 10,3 C 22,5 km/h (4 Bft)
26.10.2022 11:33 14,7 C 20,0 C 85 % 1018,1 hPa 0,0 l/m 15,4 km/h (3 Bft) S-SW 207 3 min 1,7 UV-I 434 W/m 12,2 C 10,7 C 24,1 km/h (4 Bft)
26.10.2022 11:36 14,7 C 19,4 C 84 % 1018,1 hPa 0,0 l/m 17,3 km/h (3 Bft) S 180 0 min 1,5 UV-I 299 W/m 12,0 C 10,1 C 29,0 km/h (5 Bft)
26.10.2022 11:39 14,6 C 17,2 C 84 % 1018,2 hPa 0,0 l/m 20,8 km/h (4 Bft) S-SW 202 0 min 1,4 UV-I 232 W/m 11,9 C 9,0 C 29,0 km/h (5 Bft)
26.10.2022 11:42 14,4 C 16,7 C 85 % 1018,2 hPa 0,0 l/m 18,6 km/h (3 Bft) S-SO 168 0 min 1,4 UV-I 242 W/m 11,9 C 9,4 C 25,7 km/h (4 Bft)
26.10.2022 11:45 14,5 C 16,1 C 85 % 1018,4 hPa 0,0 l/m 14,8 km/h (3 Bft) S 184 0 min 1,3 UV-I 205 W/m 12,0 C 10,7 C 27,4 km/h (4 Bft)
26.10.2022 11:48 14,6 C 18,3 C 85 % 1018,3 hPa 0,0 l/m 15,5 km/h (3 Bft) S-SW 207 0 min 1,6 UV-I 284 W/m 12,1 C 10,5 C 20,9 km/h (4 Bft)
26.10.2022 11:51 14,8 C 18,3 C 85 % 1018,4 hPa 0,0 l/m 15,2 km/h (3 Bft) SW 218 3 min 1,5 UV-I 307 W/m 12,3 C 10,9 C 20,9 km/h (4 Bft)
26.10.2022 11:54 14,7 C 18,3 C 85 % 1018,4 hPa 0,0 l/m 16,3 km/h (3 Bft) S-SW 205 0 min 1,5 UV-I 86 W/m 12,2 C 10,4 C 27,4 km/h (4 Bft)
26.10.2022 11:57 14,8 C 19,4 C 85 % 1018,5 hPa 0,0 l/m 14,9 km/h (3 Bft) S-SW 208 3 min 1,7 UV-I 325 W/m 12,3 C 11,0 C 22,5 km/h (4 Bft)
26.10.2022 12:00 15,1 C 20,0 C 84 % 1018,5 hPa 0,0 l/m 13,4 km/h (3 Bft) W-SW 246 3 min 1,8 UV-I 413 W/m 12,4 C 11,9 C 20,9 km/h (4 Bft)
26.10.2022 12:03 15,0 C 20,0 C 84 % 1018,5 hPa 0,0 l/m 19,4 km/h (3 Bft) S 191 3 min 1,9 UV-I 445 W/m 12,3 C 9,9 C 25,7 km/h (4 Bft)
26.10.2022 12:06 15,0 C 20,0 C 84 % 1018,6 hPa 0,0 l/m 14,2 km/h (3 Bft) SW 225 3 min 1,8 UV-I 403 W/m 12,3 C 11,5 C 22,5 km/h (4 Bft)
26.10.2022 12:09 15,1 C 20,6 C 84 % 1018,5 hPa 0,0 l/m 15,0 km/h (3 Bft) S-SW 194 3 min 1,8 UV-I 380 W/m 12,4 C 11,3 C 27,4 km/h (4 Bft)
26.10.2022 12:12 15,0 C 20,6 C 84 % 1018,6 hPa 0,0 l/m 17,1 km/h (3 Bft) S 185 3 min 1,9 UV-I 385 W/m 12,3 C 10,5 C 24,1 km/h (4 Bft)
26.10.2022 12:15 15,2 C 21,1 C 85 % 1018,6 hPa 0,0 l/m 15,1 km/h (3 Bft) S-SW 198 3 min 1,9 UV-I 392 W/m 12,7 C 11,4 C 22,5 km/h (4 Bft)
26.10.2022 12:18 15,3 C 21,1 C 84 % 1018,6 hPa 0,0 l/m 18,6 km/h (3 Bft) SW 226 3 min 2,0 UV-I 408 W/m 12,6 C 10,5 C 27,4 km/h (4 Bft)
26.10.2022 12:21 15,3 C 21,1 C 83 % 1018,8 hPa 0,0 l/m 18,1 km/h (3 Bft) SW 214 3 min 2,0 UV-I 406 W/m 12,4 C 10,6 C 25,7 km/h (4 Bft)
26.10.2022 12:24 15,4 C 21,1 C 83 % 1018,7 hPa 0,0 l/m 18,8 km/h (3 Bft) S 181 3 min 1,9 UV-I 396 W/m 12,5 C 10,6 C 27,4 km/h (4 Bft)
26.10.2022 12:27 15,6 C 21,7 C 82 % 1018,8 hPa 0,0 l/m 17,3 km/h (3 Bft) S-SW 207 3 min 2,0 UV-I 403 W/m 12,5 C 11,2 C 29,0 km/h (5 Bft)
26.10.2022 12:30 15,6 C 20,6 C 82 % 1018,9 hPa 0,0 l/m 19,0 km/h (3 Bft) S 188 3 min 2,0 UV-I 408 W/m 12,5 C 10,8 C 27,4 km/h (4 Bft)
26.10.2022 12:33 15,7 C 21,1 C 82 % 1018,9 hPa 0,0 l/m 18,1 km/h (3 Bft) S-SW 205 3 min 2,0 UV-I 417 W/m 12,6 C 11,1 C 27,4 km/h (4 Bft)
26.10.2022 12:36 15,8 C 21,7 C 83 % 1018,9 hPa 0,0 l/m 17,1 km/h (3 Bft) S-SW 204 3 min 2,0 UV-I 422 W/m 12,9 C 11,5 C 24,1 km/h (4 Bft)
26.10.2022 12:39 16,1 C 22,2 C 82 % 1019,0 hPa 0,0 l/m 16,9 km/h (3 Bft) S 179 3 min 2,0 UV-I 419 W/m 13,0 C 12,0 C 25,7 km/h (4 Bft)
26.10.2022 12:42 16,1 C 21,7 C 82 % 1018,9 hPa 0,0 l/m 17,9 km/h (3 Bft) S-SW 194 3 min 2,0 UV-I 412 W/m 13,0 C 11,7 C 25,7 km/h (4 Bft)
26.10.2022 12:45 16,2 C 21,7 C 81 % 1019,0 hPa 0,0 l/m 19,1 km/h (3 Bft) S-SW 198 3 min 2,1 UV-I 424 W/m 12,9 C 11,5 C 30,6 km/h (5 Bft)
26.10.2022 12:48 16,4 C 22,2 C 80 % 1019,0 hPa 0,0 l/m 19,2 km/h (3 Bft) S-SW 212 3 min 2,1 UV-I 428 W/m 12,9 C 11,7 C 29,0 km/h (5 Bft)
26.10.2022 12:51 16,4 C 21,7 C 80 % 1019,0 hPa 0,0 l/m 18,3 km/h (3 Bft) SW 219 3 min 2,1 UV-I 423 W/m 12,9 C 12,0 C 30,6 km/h (5 Bft)
26.10.2022 12:54 16,7 C 22,2 C 80 % 1018,9 hPa 0,0 l/m 18,2 km/h (3 Bft) S-SW 210 3 min 2,1 UV-I 427 W/m 13,2 C 12,4 C 29,0 km/h (5 Bft)
26.10.2022 12:57 16,8 C 21,7 C 78 % 1019,0 hPa 0,0 l/m 19,1 km/h (3 Bft) SW 217 3 min 2,1 UV-I 408 W/m 12,9 C 12,3 C 30,6 km/h (5 Bft)
26.10.2022 13:00 16,8 C 21,7 C 79 % 1019,0 hPa 0,0 l/m 20,1 km/h (4 Bft) S-SW 200 3 min 2,1 UV-I 444 W/m 13,1 C 12,0 C 29,0 km/h (5 Bft)
26.10.2022 13:03 16,8 C 22,2 C 78 % 1019,0 hPa 0,0 l/m 20,5 km/h (4 Bft) SW 227 3 min 2,2 UV-I 453 W/m 12,9 C 12,0 C 30,6 km/h (5 Bft)
26.10.2022 13:06 16,8 C 22,2 C 78 % 1019,0 hPa 0,0 l/m 20,7 km/h (4 Bft) SW 233 3 min 2,2 UV-I 461 W/m 12,9 C 11,9 C 33,8 km/h (5 Bft)
26.10.2022 13:09 16,9 C 23,3 C 79 % 1018,9 hPa 0,0 l/m 14,4 km/h (3 Bft) SW 215 3 min 2,1 UV-I 464 W/m 13,2 C 13,7 C 22,5 km/h (4 Bft)
26.10.2022 13:12 17,0 C 22,8 C 79 % 1019,0 hPa 0,0 l/m 17,7 km/h (3 Bft) S-SW 203 3 min 2,1 UV-I 312 W/m 13,3 C 12,9 C 25,7 km/h (4 Bft)
26.10.2022 13:15 17,1 C 22,2 C 78 % 1018,9 hPa 0,0 l/m 17,8 km/h (3 Bft) S-SO 168 3 min 2,2 UV-I 433 W/m 13,2 C 13,0 C 25,7 km/h (4 Bft)
26.10.2022 13:18 17,2 C 22,2 C 78 % 1018,9 hPa 0,0 l/m 16,6 km/h (3 Bft) S-SW 192 3 min 2,1 UV-I 423 W/m 13,3 C 13,4 C 27,4 km/h (4 Bft)
26.10.2022 13:21 17,2 C 22,2 C 79 % 1018,9 hPa 0,0 l/m 14,7 km/h (3 Bft) S-SW 209 3 min 2,1 UV-I 351 W/m 13,5 C 13,9 C 24,1 km/h (4 Bft)
26.10.2022 13:24 17,3 C 22,8 C 78 % 1019,0 hPa 0,0 l/m 17,6 km/h (3 Bft) SW 216 3 min 2,0 UV-I 383 W/m 13,4 C 13,3 C 30,6 km/h (5 Bft)
26.10.2022 13:27 17,3 C 22,8 C 77 % 1019,1 hPa 0,0 l/m 19,4 km/h (3 Bft) S 190 3 min 2,2 UV-I 504 W/m 13,2 C 12,9 C 30,6 km/h (5 Bft)
26.10.2022 13:30 17,5 C 22,8 C 78 % 1019,0 hPa 0,0 l/m 17,4 km/h (3 Bft) S-SW 196 3 min 2,0 UV-I 475 W/m 13,6 C 13,6 C 27,4 km/h (4 Bft)
26.10.2022 13:33 17,7 C 23,9 C 76 % 1019,1 hPa 0,0 l/m 15,3 km/h (3 Bft) S-SW 211 3 min 2,3 UV-I 485 W/m 13,4 C 14,4 C 25,7 km/h (4 Bft)
26.10.2022 13:36 17,7 C 23,3 C 75 % 1019,3 hPa 0,0 l/m 23,1 km/h (4 Bft) SW 217 3 min 2,1 UV-I 548 W/m 13,2 C 12,6 C 43,5 km/h (6 Bft)
26.10.2022 13:39 17,6 C 22,2 C 75 % 1019,1 hPa 0,0 l/m 24,8 km/h (4 Bft) S-SW 213 3 min 2,1 UV-I 530 W/m 13,1 C 12,2 C 41,8 km/h (6 Bft)
26.10.2022 13:42 17,3 C 20,6 C 74 % 1019,3 hPa 0,0 l/m 19,1 km/h (3 Bft) S-SW 207 3 min 2,0 UV-I 354 W/m 12,6 C 12,9 C 29,0 km/h (5 Bft)
26.10.2022 13:45 17,2 C 20,6 C 75 % 1019,4 hPa 0,0 l/m 20,2 km/h (4 Bft) S-SW 205 3 min 1,7 UV-I 428 W/m 12,7 C 12,5 C 30,6 km/h (5 Bft)
26.10.2022 13:48 17,0 C 19,4 C 76 % 1019,4 hPa 0,0 l/m 18,1 km/h (3 Bft) S-SW 199 0 min 1,6 UV-I 215 W/m 12,7 C 12,8 C 30,6 km/h (5 Bft)
26.10.2022 13:51 16,9 C 18,3 C 76 % 1019,4 hPa 0,0 l/m 20,2 km/h (4 Bft) SW 235 0 min 1,5 UV-I 223 W/m 12,6 C 12,2 C 32,2 km/h (5 Bft)
26.10.2022 13:54 16,7 C 17,8 C 76 % 1019,4 hPa 0,0 l/m 19,1 km/h (3 Bft) S-SW 209 0 min 1,6 UV-I 199 W/m 12,4 C 12,2 C 35,4 km/h (5 Bft)
26.10.2022 13:57 16,9 C 19,4 C 77 % 1019,4 hPa 0,0 l/m 18,6 km/h (3 Bft) S 190 0 min 1,8 UV-I 244 W/m 12,8 C 12,5 C 29,0 km/h (5 Bft)
26.10.2022 14:00 16,9 C 18,9 C 76 % 1019,4 hPa 0,0 l/m 16,4 km/h (3 Bft) S 182 0 min 1,5 UV-I 248 W/m 12,6 C 13,1 C 24,1 km/h (4 Bft)
26.10.2022 14:03 16,9 C 18,3 C 77 % 1019,5 hPa 0,0 l/m 21,5 km/h (4 Bft) W-SW 258 0 min 1,5 UV-I 242 W/m 12,8 C 11,9 C 30,6 km/h (5 Bft)
26.10.2022 14:06 16,9 C 18,3 C 77 % 1019,5 hPa 0,0 l/m 18,5 km/h (3 Bft) S-SW 208 0 min 1,4 UV-I 239 W/m 12,8 C 12,6 C 27,4 km/h (4 Bft)
26.10.2022 14:09 17,0 C 20,6 C 77 % 1019,4 hPa 0,0 l/m 18,4 km/h (3 Bft) S 179 0 min 1,9 UV-I 299 W/m 12,9 C 12,7 C 25,7 km/h (4 Bft)
26.10.2022 14:12 17,3 C 21,7 C 77 % 1019,5 hPa 0,0 l/m 17,4 km/h (3 Bft) S-SW 213 3 min 2,0 UV-I 418 W/m 13,2 C 13,3 C 27,4 km/h (4 Bft)
26.10.2022 14:15 17,4 C 22,2 C 77 % 1019,4 hPa 0,0 l/m 15,6 km/h (3 Bft) S-SW 200 3 min 2,0 UV-I 381 W/m 13,3 C 13,9 C 29,0 km/h (5 Bft)
26.10.2022 14:18 17,5 C 22,8 C 76 % 1019,5 hPa 0,0 l/m 16,4 km/h (3 Bft) S 182 3 min 2,0 UV-I 348 W/m 13,2 C 13,8 C 27,4 km/h (4 Bft)
26.10.2022 14:21 17,3 C 20,6 C 76 % 1019,5 hPa 0,0 l/m 19,0 km/h (3 Bft) SW 219 3 min 1,7 UV-I 332 W/m 13,0 C 12,9 C 29,0 km/h (5 Bft)
26.10.2022 14:24 17,2 C 20,6 C 77 % 1019,5 hPa 0,0 l/m 18,0 km/h (3 Bft) SW 235 0 min 1,7 UV-I 250 W/m 13,1 C 13,1 C 27,4 km/h (4 Bft)
26.10.2022 14:27 17,3 C 21,7 C 77 % 1019,4 hPa 0,0 l/m 15,1 km/h (3 Bft) S-SW 196 3 min 1,8 UV-I 364 W/m 13,2 C 13,9 C 25,7 km/h (4 Bft)
26.10.2022 14:30 17,5 C 21,1 C 77 % 1019,6 hPa 0,0 l/m 13,0 km/h (3 Bft) S-SW 194 3 min 1,7 UV-I 320 W/m 13,4 C 14,8 C 19,3 km/h (3 Bft)
26.10.2022 14:33 17,5 C 21,1 C 76 % 1019,8 hPa 0,0 l/m 19,7 km/h (3 Bft) S-SW 205 3 min 1,7 UV-I 311 W/m 13,2 C 13,0 C 32,2 km/h (5 Bft)
26.10.2022 14:36 17,5 C 21,1 C 75 % 1019,7 hPa 0,0 l/m 17,2 km/h (3 Bft) S-SW 202 3 min 1,7 UV-I 317 W/m 13,0 C 13,6 C 25,7 km/h (4 Bft)
26.10.2022 14:39 17,6 C 21,7 C 76 % 1019,8 hPa 0,0 l/m 14,0 km/h (3 Bft) S-SW 200 3 min 1,7 UV-I 327 W/m 13,3 C 14,6 C 22,5 km/h (4 Bft)
26.10.2022 14:42 17,7 C 21,7 C 75 % 1019,7 hPa 0,0 l/m 14,7 km/h (3 Bft) S-SW 203 3 min 1,7 UV-I 353 W/m 13,2 C 14,5 C 24,1 km/h (4 Bft)
26.10.2022 14:45 17,7 C 21,7 C 74 % 1019,8 hPa 0,0 l/m 17,7 km/h (3 Bft) S 183 3 min 1,7 UV-I 329 W/m 13,0 C 13,8 C 32,2 km/h (5 Bft)
26.10.2022 14:48 17,6 C 21,1 C 74 % 1019,9 hPa 0,0 l/m 21,3 km/h (4 Bft) S-SW 200 3 min 1,6 UV-I 320 W/m 12,9 C 12,8 C 30,6 km/h (5 Bft)
26.10.2022 14:51 17,7 C 21,1 C 75 % 1019,8 hPa 0,0 l/m 16,7 km/h (3 Bft) S-SW 213 3 min 1,7 UV-I 345 W/m 13,2 C 14,0 C 27,4 km/h (4 Bft)
26.10.2022 14:54 17,8 C 21,7 C 73 % 1019,9 hPa 0,0 l/m 18,4 km/h (3 Bft) S-SW 204 3 min 1,7 UV-I 356 W/m 12,9 C 13,7 C 27,4 km/h (4 Bft)
26.10.2022 14:57 17,8 C 22,2 C 74 % 1020,0 hPa 0,0 l/m 17,5 km/h (3 Bft) S 186 3 min 1,7 UV-I 367 W/m 13,1 C 13,9 C 32,2 km/h (5 Bft)
26.10.2022 15:00 17,8 C 21,7 C 73 % 1020,1 hPa 0,0 l/m 17,7 km/h (3 Bft) S-SW 196 3 min 1,7 UV-I 365 W/m 12,9 C 13,9 C 25,7 km/h (4 Bft)
26.10.2022 15:03 17,8 C 21,7 C 74 % 1020,1 hPa 0,0 l/m 16,9 km/h (3 Bft) S-SW 199 3 min 1,6 UV-I 346 W/m 13,1 C 14,1 C 24,1 km/h (4 Bft)
26.10.2022 15:06 17,9 C 21,7 C 74 % 1020,0 hPa 0,0 l/m 14,9 km/h (3 Bft) W-SW 239 3 min 1,6 UV-I 327 W/m 13,2 C 14,7 C 19,3 km/h (3 Bft)
26.10.2022 15:09 17,9 C 21,7 C 74 % 1020,0 hPa 0,0 l/m 16,3 km/h (3 Bft) SW 217 3 min 1,5 UV-I 320 W/m 13,2 C 14,4 C 27,4 km/h (4 Bft)
26.10.2022 15:12 17,8 C 21,1 C 73 % 1020,1 hPa 0,0 l/m 19,1 km/h (3 Bft) S-SW 196 3 min 1,5 UV-I 328 W/m 12,9 C 13,6 C 30,6 km/h (5 Bft)
26.10.2022 15:15 17,7 C 21,1 C 73 % 1020,2 hPa 0,0 l/m 17,6 km/h (3 Bft) S 189 3 min 1,5 UV-I 317 W/m 12,8 C 13,8 C 25,7 km/h (4 Bft)
26.10.2022 15:18 17,8 C 21,7 C 74 % 1020,1 hPa 0,0 l/m 12,9 km/h (3 Bft) S 184 3 min 1,5 UV-I 308 W/m 13,1 C 15,2 C 20,9 km/h (4 Bft)
26.10.2022 15:21 17,9 C 22,2 C 74 % 1020,1 hPa 0,0 l/m 13,4 km/h (3 Bft) SW 221 3 min 1,5 UV-I 336 W/m 13,2 C 15,2 C 17,7 km/h (3 Bft)
26.10.2022 15:24 17,9 C 22,2 C 74 % 1020,1 hPa 0,0 l/m 13,1 km/h (3 Bft) S-SW 195 3 min 1,4 UV-I 316 W/m 13,2 C 15,3 C 20,9 km/h (4 Bft)
26.10.2022 15:27 17,9 C 22,8 C 73 % 1020,3 hPa 0,0 l/m 14,1 km/h (3 Bft) S-SW 196 3 min 1,4 UV-I 309 W/m 13,0 C 15,0 C 25,7 km/h (4 Bft)
26.10.2022 15:30 17,9 C 22,2 C 74 % 1020,4 hPa 0,0 l/m 16,1 km/h (3 Bft) S 191 3 min 1,5 UV-I 353 W/m 13,2 C 14,4 C 27,4 km/h (4 Bft)
26.10.2022 15:33 17,9 C 22,8 C 73 % 1020,4 hPa 0,0 l/m 15,0 km/h (3 Bft) S-SW 193 3 min 1,5 UV-I 377 W/m 13,0 C 14,7 C 24,1 km/h (4 Bft)
26.10.2022 15:36 18,3 C 23,9 C 73 % 1020,4 hPa 0,0 l/m 13,7 km/h (3 Bft) S-SW 213 3 min 1,5 UV-I 359 W/m 13,4 C 15,6 C 24,1 km/h (4 Bft)
26.10.2022 15:39 18,2 C 23,3 C 72 % 1020,5 hPa 0,0 l/m 12,4 km/h (3 Bft) S-SW 208 3 min 1,4 UV-I 334 W/m 13,1 C 15,8 C 22,5 km/h (4 Bft)
26.10.2022 15:42 18,2 C 23,3 C 72 % 1020,5 hPa 0,0 l/m 13,6 km/h (3 Bft) S 182 3 min 1,3 UV-I 320 W/m 13,1 C 15,5 C 20,9 km/h (4 Bft)
26.10.2022 15:45 18,2 C 22,8 C 72 % 1020,3 hPa 0,0 l/m 11,3 km/h (2 Bft) S-SW 204 0 min 1,3 UV-I 289 W/m 13,1 C 16,2 C 17,7 km/h (3 Bft)
26.10.2022 15:48 18,2 C 22,2 C 71 % 1020,4 hPa 0,0 l/m 13,1 km/h (3 Bft) S 187 0 min 1,1 UV-I 248 W/m 12,9 C 15,6 C 20,9 km/h (4 Bft)
26.10.2022 15:51 17,9 C 21,1 C 71 % 1020,4 hPa 0,0 l/m 16,1 km/h (3 Bft) SW 224 0 min 1,1 UV-I 242 W/m 12,6 C 14,4 C 20,9 km/h (4 Bft)
26.10.2022 15:54 17,8 C 20,6 C 71 % 1020,3 hPa 0,0 l/m 15,8 km/h (3 Bft) SW 221 0 min 1,1 UV-I 240 W/m 12,5 C 14,4 C 25,7 km/h (4 Bft)
26.10.2022 15:57 17,8 C 20,6 C 71 % 1020,3 hPa 0,0 l/m 12,7 km/h (3 Bft) S-SW 202 0 min 1,0 UV-I 228 W/m 12,5 C 15,3 C 17,7 km/h (3 Bft)
26.10.2022 16:00 17,8 C 20,6 C 72 % 1020,3 hPa 0,0 l/m 10,4 km/h (2 Bft) S-SW 192 0 min 1,0 UV-I 217 W/m 12,7 C 16,1 C 17,7 km/h (3 Bft)
26.10.2022 16:03 17,8 C 21,1 C 72 % 1020,5 hPa 0,0 l/m 11,0 km/h (2 Bft) S-SO 163 0 min 1,0 UV-I 231 W/m 12,7 C 15,8 C 19,3 km/h (3 Bft)
26.10.2022 16:06 17,8 C 20,6 C 71 % 1020,6 hPa 0,0 l/m 12,7 km/h (3 Bft) S-SW 193 0 min 0,9 UV-I 211 W/m 12,5 C 15,3 C 22,5 km/h (4 Bft)
26.10.2022 16:09 17,7 C 19,4 C 71 % 1020,6 hPa 0,0 l/m 16,0 km/h (3 Bft) SW 219 0 min 0,9 UV-I 183 W/m 12,4 C 14,2 C 22,5 km/h (4 Bft)
26.10.2022 16:12 17,6 C 18,9 C 70 % 1020,6 hPa 0,0 l/m 18,2 km/h (3 Bft) S 178 0 min 0,8 UV-I 170 W/m 12,1 C 13,5 C 29,0 km/h (5 Bft)
26.10.2022 16:15 17,4 C 18,3 C 70 % 1020,7 hPa 0,0 l/m 16,2 km/h (3 Bft) S-SW 196 0 min 0,8 UV-I 148 W/m 11,9 C 13,8 C 24,1 km/h (4 Bft)
26.10.2022 16:18 17,4 C 17,8 C 70 % 1020,7 hPa 0,0 l/m 16,8 km/h (3 Bft) S-SW 207 0 min 0,7 UV-I 140 W/m 11,9 C 13,6 C 22,5 km/h (4 Bft)
26.10.2022 16:21 17,3 C 18,3 C 71 % 1020,7 hPa 0,0 l/m 11,8 km/h (2 Bft) S-SW 207 0 min 0,7 UV-I 146 W/m 12,0 C 15,0 C 17,7 km/h (3 Bft)
26.10.2022 16:24 17,3 C 18,3 C 72 % 1020,6 hPa 0,0 l/m 13,4 km/h (3 Bft) S 177 0 min 0,7 UV-I 135 W/m 12,2 C 14,5 C 20,9 km/h (4 Bft)
26.10.2022 16:27 17,2 C 17,8 C 72 % 1020,7 hPa 0,0 l/m 10,1 km/h (2 Bft) S 181 0 min 0,7 UV-I 132 W/m 12,1 C 15,5 C 14,5 km/h (3 Bft)
26.10.2022 16:30 17,2 C 18,3 C 72 % 1020,7 hPa 0,0 l/m 12,4 km/h (3 Bft) S-SW 196 0 min 0,7 UV-I 160 W/m 12,1 C 14,7 C 20,9 km/h (4 Bft)
26.10.2022 16:33 17,3 C 18,9 C 72 % 1020,7 hPa 0,0 l/m 10,9 km/h (2 Bft) S-SO 166 0 min 0,7 UV-I 194 W/m 12,2 C 15,3 C 17,7 km/h (3 Bft)
26.10.2022 16:36 17,3 C 18,9 C 72 % 1020,7 hPa 0,0 l/m 10,8 km/h (2 Bft) S-SO 166 0 min 0,7 UV-I 179 W/m 12,2 C 15,4 C 17,7 km/h (3 Bft)
26.10.2022 16:39 17,3 C 18,3 C 72 % 1020,7 hPa 0,0 l/m 12,6 km/h (3 Bft) S-SO 163 0 min 0,6 UV-I 158 W/m 12,2 C 14,7 C 16,1 km/h (3 Bft)
26.10.2022 16:42 17,2 C 17,8 C 72 % 1020,8 hPa 0,0 l/m 10,6 km/h (2 Bft) S 190 0 min 0,6 UV-I 153 W/m 12,1 C 15,3 C 17,7 km/h (3 Bft)
26.10.2022 16:45 17,2 C 17,8 C 72 % 1020,8 hPa 0,0 l/m 12,9 km/h (3 Bft) S 190 0 min 0,6 UV-I 161 W/m 12,1 C 14,5 C 19,3 km/h (3 Bft)
26.10.2022 16:48 17,2 C 18,3 C 73 % 1020,9 hPa 0,0 l/m 10,0 km/h (2 Bft) S-SW 202 0 min 0,6 UV-I 169 W/m 12,3 C 15,5 C 16,1 km/h (3 Bft)
26.10.2022 16:51 17,2 C 19,4 C 73 % 1020,9 hPa 0,0 l/m 9,9 km/h (2 Bft) S 188 0 min 0,6 UV-I 178 W/m 12,3 C 15,6 C 14,5 km/h (3 Bft)
26.10.2022 16:54 17,2 C 19,4 C 72 % 1020,8 hPa 0,0 l/m 10,7 km/h (2 Bft) S-SO 167 0 min 0,5 UV-I 155 W/m 12,1 C 15,3 C 16,1 km/h (3 Bft)
26.10.2022 16:57 17,2 C 19,4 C 72 % 1020,7 hPa 0,0 l/m 10,6 km/h (2 Bft) S 180 0 min 0,5 UV-I 152 W/m 12,1 C 15,3 C 17,7 km/h (3 Bft)
26.10.2022 17:00 17,2 C 19,4 C 71 % 1020,9 hPa 0,0 l/m 14,0 km/h (3 Bft) S-SO 165 0 min 0,5 UV-I 173 W/m 11,9 C 14,2 C 22,5 km/h (4 Bft)
26.10.2022 17:03 17,2 C 20,0 C 71 % 1020,9 hPa 0,0 l/m 11,1 km/h (2 Bft) S 187 0 min 0,5 UV-I 161 W/m 11,9 C 15,1 C 19,3 km/h (3 Bft)
26.10.2022 17:06 17,2 C 20,0 C 71 % 1020,9 hPa 0,0 l/m 10,6 km/h (2 Bft) S-SW 194 0 min 0,3 UV-I 156 W/m 11,9 C 15,3 C 19,3 km/h (3 Bft)
26.10.2022 17:09 17,2 C 20,6 C 71 % 1020,9 hPa 0,0 l/m 10,6 km/h (2 Bft) S 184 0 min 0,0 UV-I 144 W/m 11,9 C 15,3 C 19,3 km/h (3 Bft)
26.10.2022 17:12 17,2 C 20,6 C 71 % 1021,1 hPa 0,0 l/m 9,7 km/h (2 Bft) S 188 0 min 0,0 UV-I 151 W/m 11,9 C 15,7 C 14,5 km/h (3 Bft)
26.10.2022 17:15 17,2 C 20,6 C 72 % 1020,9 hPa 0,0 l/m 11,3 km/h (2 Bft) S 188 0 min 0,0 UV-I 134 W/m 12,1 C 15,1 C 14,5 km/h (3 Bft)
26.10.2022 17:18 17,1 C 19,4 C 72 % 1021,1 hPa 0,0 l/m 11,8 km/h (2 Bft) SW 227 0 min 0,0 UV-I 120 W/m 12,0 C 14,8 C 22,5 km/h (4 Bft)
26.10.2022 17:21 17,1 C 18,9 C 72 % 1021,2 hPa 0,0 l/m 13,1 km/h (3 Bft) SO 142 0 min 0,0 UV-I 106 W/m 12,0 C 14,3 C 22,5 km/h (4 Bft)
26.10.2022 17:24 17,0 C 18,3 C 71 % 1021,3 hPa 0,0 l/m 14,1 km/h (3 Bft) S-SW 200 0 min 0,0 UV-I 92 W/m 11,7 C 13,9 C 24,1 km/h (4 Bft)
26.10.2022 17:27 16,8 C 18,3 C 72 % 1021,3 hPa 0,0 l/m 11,4 km/h (2 Bft) S 179 0 min 0,0 UV-I 80 W/m 11,7 C 14,6 C 14,5 km/h (3 Bft)
26.10.2022 17:30 16,7 C 17,8 C 73 % 1021,4 hPa 0,0 l/m 14,1 km/h (3 Bft) S 186 0 min 0,0 UV-I 78 W/m 11,8 C 13,5 C 20,9 km/h (4 Bft)
26.10.2022 17:33 16,7 C 17,8 C 73 % 1021,4 hPa 0,0 l/m 10,2 km/h (2 Bft) S 186 0 min 0,0 UV-I 79 W/m 11,8 C 14,9 C 17,7 km/h (3 Bft)
26.10.2022 17:36 16,6 C 17,2 C 73 % 1021,4 hPa 0,0 l/m 10,8 km/h (2 Bft) S-SW 192 0 min 0,0 UV-I 60 W/m 11,7 C 14,6 C 16,1 km/h (3 Bft)
26.10.2022 17:39 16,4 C 16,7 C 74 % 1021,5 hPa 0,0 l/m 10,1 km/h (2 Bft) S-SW 196 0 min 0,0 UV-I 56 W/m 11,8 C 14,6 C 16,1 km/h (3 Bft)
26.10.2022 17:42 16,3 C 16,1 C 74 % 1021,4 hPa 0,0 l/m 8,9 km/h (2 Bft) S-SO 165 0 min 0,0 UV-I 45 W/m 11,7 C 15,0 C 12,9 km/h (3 Bft)
26.10.2022 17:45 16,2 C 15,6 C 75 % 1021,4 hPa 0,0 l/m 9,2 km/h (2 Bft) S 180 0 min 0,0 UV-I 39 W/m 11,8 C 14,8 C 14,5 km/h (3 Bft)
26.10.2022 17:48 16,2 C 15,0 C 75 % 1021,4 hPa 0,0 l/m 8,9 km/h (2 Bft) S 188 0 min 0,0 UV-I 37 W/m 11,8 C 14,9 C 17,7 km/h (3 Bft)
26.10.2022 17:51 16,0 C 15,0 C 75 % 1021,5 hPa 0,0 l/m 7,4 km/h (2 Bft) S 173 0 min 0,0 UV-I 35 W/m 11,6 C 15,5 C 11,3 km/h (2 Bft)
26.10.2022 17:54 16,0 C 15,0 C 75 % 1021,5 hPa 0,0 l/m 8,6 km/h (2 Bft) S 169 0 min 0,0 UV-I 28 W/m 11,6 C 14,9 C 16,1 km/h (3 Bft)
26.10.2022 17:57 15,9 C 14,4 C 76 % 1021,5 hPa 0,0 l/m 8,1 km/h (2 Bft) S-SW 199 0 min 0,0 UV-I 24 W/m 11,7 C 15,0 C 14,5 km/h (3 Bft)
26.10.2022 18:00 15,7 C 14,4 C 76 % 1021,5 hPa 0,0 l/m 8,0 km/h (2 Bft) S 178 0 min 0,0 UV-I 20 W/m 11,5 C 14,8 C 12,9 km/h (3 Bft)
26.10.2022 18:03 15,6 C 13,9 C 77 % 1021,5 hPa 0,0 l/m 7,4 km/h (2 Bft) S 177 0 min 0,0 UV-I 18 W/m 11,6 C 15,1 C 12,9 km/h (3 Bft)
26.10.2022 18:06 15,4 C 13,9 C 77 % 1021,5 hPa 0,0 l/m 7,2 km/h (2 Bft) S 176 0 min 0,0 UV-I 14 W/m 11,4 C 15,0 C 9,7 km/h (2 Bft)
26.10.2022 18:09 15,2 C 13,3 C 78 % 1021,6 hPa 0,0 l/m 5,4 km/h (1 Bft) S 186 0 min 0,0 UV-I 12 W/m 11,4 C 15,2 C 8,0 km/h (2 Bft)
26.10.2022 18:12 14,9 C 12,8 C 78 % 1021,7 hPa 0,0 l/m 5,9 km/h (2 Bft) S 184 0 min 0,0 UV-I 9 W/m 11,1 C 14,9 C 8,0 km/h (2 Bft)
26.10.2022 18:15 14,6 C 12,2 C 79 % 1021,6 hPa 0,0 l/m 5,3 km/h (1 Bft) S 184 0 min 0,0 UV-I 6 W/m 11,0 C 14,6 C 8,0 km/h (2 Bft)
26.10.2022 18:18 14,4 C 12,2 C 80 % 1021,7 hPa 0,0 l/m 4,8 km/h (1 Bft) S 180 0 min 0,0 UV-I 4 W/m 11,0 C 14,4 C 6,4 km/h (2 Bft)
26.10.2022 18:21 14,2 C 11,7 C 80 % 1021,7 hPa 0,0 l/m 5,4 km/h (1 Bft) S-SW 194 0 min 0,0 UV-I 0 W/m 10,8 C 14,2 C 8,0 km/h (2 Bft)
26.10.2022 18:24 14,1 C 11,7 C 81 % 1021,8 hPa 0,0 l/m 5,1 km/h (1 Bft) S-SW 196 0 min 0,0 UV-I 0 W/m 10,9 C 14,1 C 8,0 km/h (2 Bft)
26.10.2022 18:27 14,0 C 11,7 C 81 % 1021,8 hPa 0,0 l/m 6,2 km/h (2 Bft) S 189 0 min 0,0 UV-I 0 W/m 10,8 C 14,0 C 9,7 km/h (2 Bft)
26.10.2022 18:30 13,9 C 11,7 C 82 % 1021,9 hPa 0,0 l/m 7,5 km/h (2 Bft) S-SW 194 0 min 0,0 UV-I 0 W/m 10,9 C 13,2 C 11,3 km/h (2 Bft)
26.10.2022 18:33 13,7 C 11,1 C 81 % 1021,9 hPa 0,0 l/m 6,3 km/h (2 Bft) S-SW 193 0 min 0,0 UV-I 0 W/m 10,5 C 13,7 C 8,0 km/h (2 Bft)
26.10.2022 18:36 13,6 C 11,1 C 82 % 1021,9 hPa 0,0 l/m 6,4 km/h (2 Bft) S 191 0 min 0,0 UV-I 0 W/m 10,6 C 13,6 C 9,7 km/h (2 Bft)
26.10.2022 18:39 13,4 C 11,1 C 82 % 1021,8 hPa 0,0 l/m 6,7 km/h (2 Bft) S 190 0 min 0,0 UV-I 0 W/m 10,4 C 13,2 C 9,7 km/h (2 Bft)
26.10.2022 18:42 13,4 C 11,1 C 83 % 1022,0 hPa 0,0 l/m 5,9 km/h (2 Bft) S-SW 199 0 min 0,0 UV-I 0 W/m 10,6 C 13,4 C 8,0 km/h (2 Bft)
26.10.2022 18:45 13,4 C 10,6 C 83 % 1022,1 hPa 0,0 l/m 5,1 km/h (1 Bft) SW 225 0 min 0,0 UV-I 0 W/m 10,6 C 13,4 C 8,0 km/h (2 Bft)
26.10.2022 18:48 13,5 C 11,1 C 83 % 1022,1 hPa 0,0 l/m 5,2 km/h (1 Bft) SW 217 0 min 0,0 UV-I 0 W/m 10,7 C 13,5 C 9,7 km/h (2 Bft)
26.10.2022 18:51 13,4 C 11,1 C 83 % 1022,1 hPa 0,0 l/m 5,6 km/h (1 Bft) S-SW 200 0 min 0,0 UV-I 0 W/m 10,6 C 13,4 C 8,0 km/h (2 Bft)
26.10.2022 18:54 13,4 C 10,6 C 83 % 1022,1 hPa 0,0 l/m 4,2 km/h (1 Bft) S-SW 199 0 min 0,0 UV-I 0 W/m 10,6 C 13,4 C 6,4 km/h (2 Bft)
26.10.2022 18:57 13,4 C 11,1 C 83 % 1022,2 hPa 0,0 l/m 4,2 km/h (1 Bft) S-SW 207 0 min 0,0 UV-I 0 W/m 10,6 C 13,4 C 6,4 km/h (2 Bft)
26.10.2022 19:00 13,4 C 11,1 C 83 % 1022,2 hPa 0,0 l/m 3,9 km/h (1 Bft) S-SW 213 0 min 0,0 UV-I 0 W/m 10,6 C 13,4 C 6,4 km/h (2 Bft)
26.10.2022 19:03 13,4 C 11,1 C 83 % 1022,5 hPa 0,0 l/m 5,4 km/h (1 Bft) SW 231 0 min 0,0 UV-I 0 W/m 10,6 C 13,4 C 8,0 km/h (2 Bft)
26.10.2022 19:06 13,3 C 10,6 C 83 % 1022,5 hPa 0,0 l/m 4,8 km/h (1 Bft) SW 215 0 min 0,0 UV-I 0 W/m 10,5 C 13,3 C 6,4 km/h (2 Bft)
26.10.2022 19:09 13,1 C 10,6 C 83 % 1022,5 hPa 0,0 l/m 3,7 km/h (1 Bft) SW 215 0 min 0,0 UV-I 0 W/m 10,3 C 13,1 C 4,8 km/h (1 Bft)
26.10.2022 19:12 13,0 C 10,0 C 84 % 1022,5 hPa 0,0 l/m 3,1 km/h (1 Bft) SW 215 0 min 0,0 UV-I 0 W/m 10,4 C 13,0 C 6,4 km/h (2 Bft)
26.10.2022 19:15 12,9 C 10,0 C 84 % 1022,6 hPa 0,0 l/m 3,9 km/h (1 Bft) S-SW 211 0 min 0,0 UV-I 0 W/m 10,3 C 12,9 C 6,4 km/h (2 Bft)
26.10.2022 19:18 12,9 C 10,0 C 84 % 1022,7 hPa 0,0 l/m 4,5 km/h (1 Bft) S-SW 211 0 min 0,0 UV-I 0 W/m 10,3 C 12,9 C 6,4 km/h (2 Bft)
26.10.2022 19:21 12,9 C 10,0 C 85 % 1022,7 hPa 0,0 l/m 4,4 km/h (1 Bft) S 175 0 min 0,0 UV-I 0 W/m 10,4 C 12,9 C 9,7 km/h (2 Bft)
26.10.2022 19:24 13,0 C 10,0 C 85 % 1022,7 hPa 0,0 l/m 8,2 km/h (2 Bft) S-SO 166 0 min 0,0 UV-I 0 W/m 10,5 C 11,9 C 11,3 km/h (2 Bft)
26.10.2022 19:27 13,2 C 10,6 C 85 % 1022,7 hPa 0,0 l/m 5,6 km/h (1 Bft) S 174 0 min 0,0 UV-I 0 W/m 10,7 C 13,2 C 9,7 km/h (2 Bft)
26.10.2022 19:30 13,2 C 10,6 C 85 % 1022,8 hPa 0,0 l/m 2,7 km/h (1 Bft) S 177 0 min 0,0 UV-I 0 W/m 10,7 C 13,2 C 4,8 km/h (1 Bft)
26.10.2022 19:33 13,1 C 10,6 C 85 % 1022,8 hPa 0,0 l/m 3,3 km/h (1 Bft) S 177 0 min 0,0 UV-I 0 W/m 10,6 C 13,1 C 4,8 km/h (1 Bft)
26.10.2022 19:36 12,9 C 10,0 C 84 % 1022,9 hPa 0,0 l/m 3,7 km/h (1 Bft) S 183 0 min 0,0 UV-I 0 W/m 10,3 C 12,9 C 8,0 km/h (2 Bft)
26.10.2022 19:39 12,8 C 10,0 C 85 % 1022,9 hPa 0,0 l/m 5,3 km/h (1 Bft) S 186 0 min 0,0 UV-I 0 W/m 10,3 C 12,8 C 6,4 km/h (2 Bft)
26.10.2022 19:42 12,7 C 10,0 C 85 % 1023,1 hPa 0,0 l/m 5,2 km/h (1 Bft) S-SW 198 0 min 0,0 UV-I 0 W/m 10,2 C 12,7 C 8,0 km/h (2 Bft)
26.10.2022 19:45 12,7 C 10,6 C 86 % 1023,2 hPa 0,0 l/m 4,6 km/h (1 Bft) S-SW 208 0 min 0,0 UV-I 0 W/m 10,4 C 12,7 C 6,4 km/h (2 Bft)
26.10.2022 19:48 12,7 C 10,6 C 85 % 1023,3 hPa 0,0 l/m 4,4 km/h (1 Bft) S-SW 208 0 min 0,0 UV-I 0 W/m 10,2 C 12,7 C 6,4 km/h (2 Bft)
26.10.2022 19:51 12,7 C 10,6 C 86 % 1023,4 hPa 0,0 l/m 4,3 km/h (1 Bft) S-SW 206 0 min 0,0 UV-I 0 W/m 10,4 C 12,7 C 6,4 km/h (2 Bft)
26.10.2022 19:54 12,8 C 10,6 C 86 % 1023,5 hPa 0,0 l/m 4,3 km/h (1 Bft) S-SW 213 0 min 0,0 UV-I 0 W/m 10,5 C 12,8 C 6,4 km/h (2 Bft)
26.10.2022 19:57 12,8 C 10,6 C 86 % 1023,5 hPa 0,0 l/m 5,4 km/h (1 Bft) S-SW 193 0 min 0,0 UV-I 0 W/m 10,5 C 12,8 C 8,0 km/h (2 Bft)
26.10.2022 20:00 12,9 C 10,6 C 86 % 1023,5 hPa 0,0 l/m 4,5 km/h (1 Bft) SW 217 0 min 0,0 UV-I 0 W/m 10,6 C 12,9 C 8,0 km/h (2 Bft)
26.10.2022 20:03 12,9 C 10,6 C 86 % 1023,5 hPa 0,0 l/m 4,2 km/h (1 Bft) S-SW 198 0 min 0,0 UV-I 0 W/m 10,6 C 12,9 C 8,0 km/h (2 Bft)
26.10.2022 20:07 12,7 C 10,6 C 86 % 1023,6 hPa 0,0 l/m 5,5 km/h (1 Bft) S 188 0 min 0,0 UV-I 0 W/m 10,4 C 12,7 C 8,0 km/h (2 Bft)
26.10.2022 20:09 12,8 C 10,6 C 86 % 1023,6 hPa 0,0 l/m 5,7 km/h (1 Bft) S 190 0 min 0,0 UV-I 0 W/m 10,5 C 12,8 C 9,7 km/h (2 Bft)
26.10.2022 20:12 12,8 C 10,6 C 86 % 1023,7 hPa 0,0 l/m 4,1 km/h (1 Bft) S 180 0 min 0,0 UV-I 0 W/m 10,5 C 12,8 C 11,3 km/h (2 Bft)
26.10.2022 20:15 13,0 C 10,6 C 86 % 1023,7 hPa 0,0 l/m 4,2 km/h (1 Bft) S-SW 202 0 min 0,0 UV-I 0 W/m 10,7 C 13,0 C 6,4 km/h (2 Bft)
26.10.2022 20:18 13,1 C 10,6 C 86 % 1023,7 hPa 0,0 l/m 4,7 km/h (1 Bft) S-SW 203 0 min 0,0 UV-I 0 W/m 10,8 C 13,1 C 6,4 km/h (2 Bft)
26.10.2022 20:21 13,0 C 10,6 C 86 % 1023,7 hPa 0,0 l/m 4,6 km/h (1 Bft) S-SW 201 0 min 0,0 UV-I 0 W/m 10,7 C 13,0 C 8,0 km/h (2 Bft)
26.10.2022 20:24 12,9 C 10,6 C 86 % 1023,6 hPa 0,0 l/m 3,1 km/h (1 Bft) S-SW 201 0 min 0,0 UV-I 0 W/m 10,6 C 12,9 C 6,4 km/h (2 Bft)
26.10.2022 20:27 12,7 C 9,4 C 86 % 1023,7 hPa 0,0 l/m 1,9 km/h (1 Bft) S-SW 201 0 min 0,0 UV-I 0 W/m 10,4 C 12,7 C 3,2 km/h (1 Bft)
26.10.2022 20:30 12,2 C 8,9 C 85 % 1023,8 hPa 0,0 l/m 0,8 km/h (0 Bft) S-SW 201 0 min 0,0 UV-I 0 W/m 9,8 C 12,2 C 3,2 km/h (1 Bft)
26.10.2022 20:33 11,7 C 8,9 C 86 % 1023,9 hPa 0,0 l/m 1,1 km/h (1 Bft) S-SW 201 0 min 0,0 UV-I 0 W/m 9,4 C 11,7 C 3,2 km/h (1 Bft)
26.10.2022 20:36 11,5 C 8,9 C 87 % 1023,9 hPa 0,0 l/m 0,3 km/h (0 Bft) S-SW 201 0 min 0,0 UV-I 0 W/m 9,4 C 11,5 C 1,6 km/h (1 Bft)
26.10.2022 20:39 11,4 C 8,9 C 88 % 1023,9 hPa 0,0 l/m 0,1 km/h (0 Bft) S-SW 201 0 min 0,0 UV-I 0 W/m 9,5 C 11,4 C 1,6 km/h (1 Bft)
26.10.2022 20:42 11,4 C 8,3 C 89 % 1023,9 hPa 0,0 l/m 1,5 km/h (1 Bft) S-SW 201 0 min 0,0 UV-I 0 W/m 9,7 C 11,4 C 3,2 km/h (1 Bft)
26.10.2022 20:45 11,2 C 8,3 C 88 % 1023,9 hPa 0,0 l/m 0,6 km/h (0 Bft) S-SW 201 0 min 0,0 UV-I 0 W/m 9,3 C 11,2 C 1,6 km/h (1 Bft)
26.10.2022 20:48 10,9 C 8,3 C 89 % 1023,9 hPa 0,0 l/m 3,0 km/h (1 Bft) S-SW 201 0 min 0,0 UV-I 0 W/m 9,2 C 10,9 C 4,8 km/h (1 Bft)
26.10.2022 20:51 10,9 C 8,3 C 89 % 1023,9 hPa 0,0 l/m 3,0 km/h (1 Bft) S-SW 201 0 min 0,0 UV-I 0 W/m 9,2 C 10,9 C 4,8 km/h (1 Bft)
26.10.2022 20:54 10,9 C 8,3 C 90 % 1024,0 hPa 0,0 l/m 2,3 km/h (1 Bft) S-SW 201 0 min 0,0 UV-I 0 W/m 9,3 C 10,9 C 3,2 km/h (1 Bft)
26.10.2022 20:57 10,8 C 8,3 C 90 % 1024,1 hPa 0,0 l/m 2,2 km/h (1 Bft) S-SW 201 0 min 0,0 UV-I 0 W/m 9,2 C 10,8 C 3,2 km/h (1 Bft)
26.10.2022 21:00 10,8 C 8,3 C 90 % 1024,0 hPa 0,0 l/m 2,7 km/h (1 Bft) S-SW 201 0 min 0,0 UV-I 0 W/m 9,2 C 10,8 C 3,2 km/h (1 Bft)
26.10.2022 21:03 10,8 C 8,3 C 91 % 1023,9 hPa 0,0 l/m 2,2 km/h (1 Bft) S-SW 201 0 min 0,0 UV-I 0 W/m 9,4 C 10,8 C 3,2 km/h (1 Bft)
26.10.2022 21:09 10,5 C 7,8 C 90 % 1024,1 hPa 0,0 l/m 0,1 km/h (0 Bft) S-SW 201 0 min 0,0 UV-I 0 W/m 8,9 C 10,5 C 1,6 km/h (1 Bft)
26.10.2022 21:12 10,3 C 7,8 C 90 % 1024,0 hPa 0,0 l/m 0,0 km/h (0 Bft) S-SW 201 0 min 0,0 UV-I 0 W/m 8,7 C 10,3 C 0,0 km/h (0 Bft)
26.10.2022 21:15 10,2 C 7,8 C 91 % 1024,1 hPa 0,0 l/m 0,2 km/h (0 Bft) S-SW 201 0 min 0,0 UV-I 0 W/m 8,8 C 10,2 C 1,6 km/h (1 Bft)
26.10.2022 21:18 10,2 C 7,8 C 91 % 1024,1 hPa 0,0 l/m 0,3 km/h (0 Bft) S-SW 201 0 min 0,0 UV-I 0 W/m 8,8 C 10,2 C 1,6 km/h (1 Bft)
26.10.2022 21:21 10,2 C 7,8 C 91 % 1024,2 hPa 0,0 l/m 0,2 km/h (0 Bft) S-SW 201 0 min 0,0 UV-I 0 W/m 8,8 C 10,2 C 1,6 km/h (1 Bft)
26.10.2022 21:24 10,1 C 7,8 C 91 % 1024,2 hPa 0,0 l/m 1,3 km/h (1 Bft) S-SW 201 0 min 0,0 UV-I 0 W/m 8,7 C 10,1 C 4,8 km/h (1 Bft)
26.10.2022 21:27 10,0 C 7,2 C 91 % 1024,3 hPa 0,0 l/m 0,7 km/h (0 Bft) S-SW 201 0 min 0,0 UV-I 0 W/m 8,6 C 10,0 C 3,2 km/h (1 Bft)
26.10.2022 21:30 9,8 C 7,8 C 91 % 1024,3 hPa 0,0 l/m 1,3 km/h (1 Bft) S-SW 201 0 min 0,0 UV-I 0 W/m 8,4 C 9,8 C 3,2 km/h (1 Bft)
26.10.2022 21:33 10,0 C 7,8 C 92 % 1024,4 hPa 0,0 l/m 1,6 km/h (1 Bft) S-SW 201 0 min 0,0 UV-I 0 W/m 8,8 C 10,0 C 3,2 km/h (1 Bft)
26.10.2022 21:36 10,0 C 7,8 C 91 % 1024,4 hPa 0,0 l/m 0,1 km/h (0 Bft) S-SW 201 0 min 0,0 UV-I 0 W/m 8,6 C 10,0 C 1,6 km/h (1 Bft)
26.10.2022 21:39 9,8 C 7,2 C 91 % 1024,4 hPa 0,0 l/m 0,5 km/h (0 Bft) S-SW 201 0 min 0,0 UV-I 0 W/m 8,4 C 9,8 C 3,2 km/h (1 Bft)
26.10.2022 21:42 9,6 C 7,2 C 91 % 1024,4 hPa 0,0 l/m 0,2 km/h (0 Bft) S-SW 201 0 min 0,0 UV-I 0 W/m 8,2 C 9,6 C 1,6 km/h (1 Bft)
26.10.2022 21:45 9,6 C 7,2 C 91 % 1024,4 hPa 0,0 l/m 0,0 km/h (0 Bft) S-SW 201 0 min 0,0 UV-I 0 W/m 8,2 C 9,6 C 1,6 km/h (1 Bft)
26.10.2022 21:48 9,6 C 7,2 C 91 % 1024,4 hPa 0,0 l/m 0,0 km/h (0 Bft) S-SW 201 0 min 0,0 UV-I 0 W/m 8,2 C 9,6 C 0,0 km/h (0 Bft)
26.10.2022 21:51 9,6 C 7,2 C 92 % 1024,4 hPa 0,0 l/m 0,0 km/h (0 Bft) S-SW 201 0 min 0,0 UV-I 0 W/m 8,4 C 9,6 C 0,0 km/h (0 Bft)
26.10.2022 21:54 9,6 C 7,2 C 91 % 1024,4 hPa 0,0 l/m 0,0 km/h (0 Bft) S-SW 201 0 min 0,0 UV-I 0 W/m 8,2 C 9,6 C 0,0 km/h (0 Bft)
26.10.2022 21:57 9,6 C 7,2 C 92 % 1024,5 hPa 0,0 l/m 0,0 km/h (0 Bft) S-SW 201 0 min 0,0 UV-I 0 W/m 8,4 C 9,6 C 0,0 km/h (0 Bft)
26.10.2022 22:00 9,7 C 7,2 C 92 % 1024,5 hPa 0,0 l/m 0,0 km/h (0 Bft) S-SW 201 0 min 0,0 UV-I 0 W/m 8,5 C 9,7 C 1,6 km/h (1 Bft)
26.10.2022 22:03 9,3 C 6,7 C 92 % 1024,6 hPa 0,0 l/m 0,0 km/h (0 Bft) S-SW 201 0 min 0,0 UV-I 0 W/m 8,1 C 9,3 C 0,0 km/h (0 Bft)
26.10.2022 22:06 9,3 C 6,7 C 92 % 1024,7 hPa 0,0 l/m 0,0 km/h (0 Bft) S-SW 201 0 min 0,0 UV-I 0 W/m 8,1 C 9,3 C 0,0 km/h (0 Bft)
26.10.2022 22:09 9,4 C 6,7 C 92 % 1024,7 hPa 0,0 l/m 0,0 km/h (0 Bft) S-SW 201 0 min 0,0 UV-I 0 W/m 8,2 C 9,4 C 0,0 km/h (0 Bft)
26.10.2022 22:12 9,6 C 7,2 C 93 % 1024,7 hPa 0,0 l/m 0,0 km/h (0 Bft) S-SW 201 0 min 0,0 UV-I 0 W/m 8,5 C 9,6 C 0,0 km/h (0 Bft)
26.10.2022 22:15 9,7 C 7,2 C 92 % 1024,7 hPa 0,0 l/m 0,0 km/h (0 Bft) S-SW 201 0 min 0,0 UV-I 0 W/m 8,5 C 9,7 C 0,0 km/h (0 Bft)
26.10.2022 22:18 9,4 C 6,7 C 92 % 1024,7 hPa 0,0 l/m 0,0 km/h (0 Bft) S-SW 201 0 min 0,0 UV-I 0 W/m 8,2 C 9,4 C 0,0 km/h (0 Bft)
26.10.2022 22:21 9,0 C 6,7 C 92 % 1024,7 hPa 0,0 l/m 0,6 km/h (0 Bft) S-SW 201 0 min 0,0 UV-I 0 W/m 7,8 C 9,0 C 1,6 km/h (1 Bft)
26.10.2022 22:24 8,9 C 6,7 C 92 % 1024,8 hPa 0,0 l/m 0,8 km/h (0 Bft) S-SW 201 0 min 0,0 UV-I 0 W/m 7,7 C 8,9 C 1,6 km/h (1 Bft)
26.10.2022 22:27 8,8 C 6,7 C 92 % 1024,8 hPa 0,0 l/m 0,9 km/h (0 Bft) S-SW 201 0 min 0,0 UV-I 0 W/m 7,6 C 8,8 C 1,6 km/h (1 Bft)
26.10.2022 22:30 8,9 C 6,7 C 92 % 1024,8 hPa 0,0 l/m 1,1 km/h (1 Bft) S-SW 201 0 min 0,0 UV-I 0 W/m 7,7 C 8,9 C 1,6 km/h (1 Bft)
26.10.2022 22:33 9,1 C 6,7 C 93 % 1024,8 hPa 0,0 l/m 1,4 km/h (1 Bft) S-SW 201 0 min 0,0 UV-I 0 W/m 8,0 C 9,1 C 3,2 km/h (1 Bft)
26.10.2022 22:36 9,4 C 7,2 C 93 % 1024,8 hPa 0,0 l/m 0,9 km/h (0 Bft) S-SW 201 0 min 0,0 UV-I 0 W/m 8,3 C 9,4 C 1,6 km/h (1 Bft)
26.10.2022 22:39 9,4 C 6,7 C 93 % 1024,8 hPa 0,0 l/m 0,0 km/h (0 Bft) S-SW 201 0 min 0,0 UV-I 0 W/m 8,3 C 9,4 C 0,0 km/h (0 Bft)
26.10.2022 22:42 8,9 C 6,7 C 92 % 1024,8 hPa 0,0 l/m 0,0 km/h (0 Bft) S-SW 201 0 min 0,0 UV-I 0 W/m 7,7 C 8,9 C 0,0 km/h (0 Bft)
26.10.2022 22:45 8,5 C 6,1 C 92 % 1024,9 hPa 0,0 l/m 0,0 km/h (0 Bft) S-SW 201 0 min 0,0 UV-I 0 W/m 7,3 C 8,5 C 0,0 km/h (0 Bft)
26.10.2022 22:48 8,4 C 6,1 C 92 % 1024,9 hPa 0,0 l/m 0,2 km/h (0 Bft) S-SW 201 0 min 0,0 UV-I 0 W/m 7,2 C 8,4 C 1,6 km/h (1 Bft)
26.10.2022 22:51 8,6 C 6,1 C 93 % 1024,9 hPa 0,0 l/m 0,0 km/h (0 Bft) S-SW 201 0 min 0,0 UV-I 0 W/m 7,5 C 8,6 C 0,0 km/h (0 Bft)
26.10.2022 22:54 8,5 C 6,1 C 92 % 1024,9 hPa 0,0 l/m 0,0 km/h (0 Bft) S-SW 201 0 min 0,0 UV-I 0 W/m 7,3 C 8,5 C 0,0 km/h (0 Bft)
26.10.2022 22:57 8,5 C 6,7 C 93 % 1025,0 hPa 0,0 l/m 0,0 km/h (0 Bft) S-SW 201 0 min 0,0 UV-I 0 W/m 7,4 C 8,5 C 0,0 km/h (0 Bft)
26.10.2022 23:00 8,7 C 6,7 C 93 % 1025,0 hPa 0,0 l/m 0,8 km/h (0 Bft) S-SW 201 0 min 0,0 UV-I 0 W/m 7,6 C 8,7 C 3,2 km/h (1 Bft)
26.10.2022 23:03 8,8 C 6,1 C 93 % 1025,0 hPa 0,0 l/m 2,1 km/h (1 Bft) S-SW 201 0 min 0,0 UV-I 0 W/m 7,7 C 8,8 C 3,2 km/h (1 Bft)
26.10.2022 23:06 8,4 C 6,1 C 93 % 1025,0 hPa 0,0 l/m 0,6 km/h (0 Bft) S-SW 201 0 min 0,0 UV-I 0 W/m 7,3 C 8,4 C 1,6 km/h (1 Bft)
26.10.2022 23:09 8,6 C 6,1 C 93 % 1025,0 hPa 0,0 l/m 1,3 km/h (1 Bft) S-SW 201 0 min 0,0 UV-I 0 W/m 7,5 C 8,6 C 3,2 km/h (1 Bft)
26.10.2022 23:12 8,9 C 6,7 C 93 % 1025,0 hPa 0,0 l/m 1,2 km/h (1 Bft) S-SW 201 0 min 0,0 UV-I 0 W/m 7,8 C 8,9 C 1,6 km/h (1 Bft)
26.10.2022 23:15 9,2 C 6,7 C 93 % 1025,1 hPa 0,0 l/m 0,8 km/h (0 Bft) S-SW 201 0 min 0,0 UV-I 0 W/m 8,1 C 9,2 C 1,6 km/h (1 Bft)
26.10.2022 23:18 9,2 C 7,2 C 93 % 1025,1 hPa 0,0 l/m 1,2 km/h (1 Bft) S-SW 201 0 min 0,0 UV-I 0 W/m 8,1 C 9,2 C 3,2 km/h (1 Bft)
26.10.2022 23:21 9,2 C 7,2 C 93 % 1025,1 hPa 0,0 l/m 0,4 km/h (0 Bft) S-SW 201 0 min 0,0 UV-I 0 W/m 8,1 C 9,2 C 1,6 km/h (1 Bft)
26.10.2022 23:24 8,9 C 6,7 C 93 % 1025,1 hPa 0,0 l/m 0,2 km/h (0 Bft) S-SW 201 0 min 0,0 UV-I 0 W/m 7,8 C 8,9 C 1,6 km/h (1 Bft)
26.10.2022 23:27 8,4 C 6,1 C 92 % 1025,0 hPa 0,0 l/m 0,0 km/h (0 Bft) S-SW 201 0 min 0,0 UV-I 0 W/m 7,2 C 8,4 C 0,0 km/h (0 Bft)
26.10.2022 23:30 8,1 C 5,6 C 92 % 1025,1 hPa 0,0 l/m 0,1 km/h (0 Bft) S-SW 201 0 min 0,0 UV-I 0 W/m 6,9 C 8,1 C 1,6 km/h (1 Bft)
26.10.2022 23:33 8,0 C 5,6 C 93 % 1025,1 hPa 0,0 l/m 0,8 km/h (0 Bft) S-SW 201 0 min 0,0 UV-I 0 W/m 6,9 C 8,0 C 1,6 km/h (1 Bft)
26.10.2022 23:36 8,0 C 5,6 C 93 % 1025,1 hPa 0,0 l/m 1,7 km/h (1 Bft) S-SW 201 0 min 0,0 UV-I 0 W/m 6,9 C 8,0 C 3,2 km/h (1 Bft)
26.10.2022 23:39 8,0 C 5,6 C 93 % 1025,2 hPa 0,0 l/m 2,9 km/h (1 Bft) S-SW 201 0 min 0,0 UV-I 0 W/m 6,9 C 8,0 C 4,8 km/h (1 Bft)
26.10.2022 23:42 8,0 C 5,6 C 93 % 1025,2 hPa 0,0 l/m 3,1 km/h (1 Bft) S-SW 201 0 min 0,0 UV-I 0 W/m 6,9 C 8,0 C 4,8 km/h (1 Bft)
26.10.2022 23:45 8,0 C 5,6 C 93 % 1025,4 hPa 0,0 l/m 2,9 km/h (1 Bft) S-SW 201 0 min 0,0 UV-I 0 W/m 6,9 C 8,0 C 4,8 km/h (1 Bft)
26.10.2022 23:48 7,7 C 5,0 C 93 % 1025,3 hPa 0,0 l/m 1,8 km/h (1 Bft) S-SW 201 0 min 0,0 UV-I 0 W/m 6,6 C 7,7 C 3,2 km/h (1 Bft)
26.10.2022 23:51 7,9 C 5,6 C 93 % 1025,2 hPa 0,0 l/m 1,5 km/h (1 Bft) S-SW 201 0 min 0,0 UV-I 0 W/m 6,8 C 7,9 C 3,2 km/h (1 Bft)
26.10.2022 23:54 8,1 C 5,6 C 94 % 1025,3 hPa 0,0 l/m 0,7 km/h (0 Bft) S-SW 201 0 min 0,0 UV-I 0 W/m 7,2 C 8,1 C 1,6 km/h (1 Bft)
26.10.2022 23:57 8,1 C 5,6 C 93 % 1025,1 hPa 0,0 l/m 1,3 km/h (1 Bft) S-SW 201 0 min 0,0 UV-I 0 W/m 7,0 C 8,1 C 1,6 km/h (1 Bft)
_ Min-Zeit 00:00 23:48 16:12 07:06 - 01:51 - - - - - 00:00 00:00 01:51
Minimum _ 7,4 C 5,0 C 70 % 1015,4 hPa - 0,0 km/h (0 Bft) - - - - - 6,2 C 7,3 C 0,0 km/h (0 Bft)
_ Max-Zeit 15:36 13:33 00:42 23:45 04:48 13:39 - - 11:00 13:33 13:36 13:30 15:45 13:36
Maximum _ 18,3 C 23,9 C 94 % 1025,4 hPa 0,2 l/m 24,8 km/h
S-SW (4 Bft)
- - 3 min 2,3 UV-I 548 W/m 13,6 C 16,2 C 43,5 km/h
S (6 Bft)
Durchschnitt _ 12,3 C 12,4 C 86 % 1019,2 hPa #0,4 l/m 6,9 km/h (2 Bft) S-SW - #3:54 h 1,4 UV-I 224 W/m 10,0 C 11,1 C 11,5 km/h (2 Bft)